Time,TemperatureF,DewpointF,PressureIn,WindDirection,WindDirectionDegrees,WindSpeedMPH,WindSpeedGustMPH,Humidity,HourlyPrecipIn,Conditions,Clouds,dailyrainin,SoftwareType,DateUTC
2013-04-01 00:00:00,65.9,62.9,30.03,SSW,200,2.0,3.0,90,0.00,,,0.00,Wunderground v.1.15,2013-04-01 04:00:00,
2013-04-01 00:01:00,65.9,62.9,30.03,South,172,1.0,3.0,90,0.00,,,0.00,Wunderground v.1.15,2013-04-01 04:01:00,
2013-04-01 00:02:00,65.9,62.9,30.03,SSW,203,1.0,3.0,90,0.00,,,0.00,Wunderground v.1.15,2013-04-01 04:02:00,
2013-04-01 00:04:00,65.9,62.9,30.03,South,172,2.0,3.0,90,0.00,,,0.00,Wunderground v.1.15,2013-04-01 04:04:00,
2013-04-01 00:05:00,65.9,62.9,30.03,SSE,155,4.0,4.0,90,0.00,,,0.00,Wunderground v.1.15,2013-04-01 04:05:00,
2013-04-01 00:06:00,66.0,62.7,30.03,SSE,163,2.0,4.0,89,0.00,,,0.00,Wunderground v.1.15,2013-04-01 04:06:00,
2013-04-01 00:08:00,66.0,62.7,30.03,SSE,149,1.0,4.0,89,0.00,,,0.00,Wunderground v.1.15,2013-04-01 04:08:00,
2013-04-01 00:13:00,66.0,62.7,30.03,South,174,2.0,2.0,89,0.00,,,0.00,Wunderground v.1.15,2013-04-01 04:13:00,
2013-04-01 00:14:00,66.0,62.7,30.03,SSW,193,1.0,2.0,89,0.00,,,0.00,Wunderground v.1.15,2013-04-01 04:14:00,
2013-04-01 00:17:00,66.0,62.7,30.03,SSE,158,1.0,2.0,89,0.00,,,0.00,Wunderground v.1.15,2013-04-01 04:17:00,
2013-04-01 00:19:00,65.9,62.6,30.03,SE,129,3.0,3.0,89,0.00,,,0.00,Wunderground v.1.15,2013-04-01 04:19:00,
2013-04-01 00:20:00,65.9,62.6,30.03,SSE,155,3.0,3.0,89,0.00,,,0.00,Wunderground v.1.15,2013-04-01 04:20:00,
2013-04-01 00:25:00,65.9,62.6,30.02,South,174,3.0,4.0,89,0.00,,,0.00,Wunderground v.1.15,2013-04-01 04:25:00,
2013-04-01 00:26:00,65.9,62.6,30.02,SSE,159,2.0,4.0,89,0.00,,,0.00,Wunderground v.1.15,2013-04-01 04:26:00,
2013-04-01 00:27:00,65.9,62.6,30.02,SSE,150,4.0,4.0,89,0.00,,,0.00,Wunderground v.1.15,2013-04-01 04:27:00,
2013-04-01 00:30:00,65.9,62.6,30.02,SSE,168,3.0,3.0,89,0.00,,,0.00,Wunderground v.1.15,2013-04-01 04:30:00,
2013-04-01 00:31:00,65.9,62.6,30.02,SE,143,2.0,3.0,89,0.00,,,0.00,Wunderground v.1.15,2013-04-01 04:31:00,
2013-04-01 00:34:00,66.0,62.7,30.02,South,184,5.0,5.0,89,0.00,,,0.00,Wunderground v.1.15,2013-04-01 04:34:00,
2013-04-01 00:35:00,65.9,62.6,30.03,SE,131,2.0,5.0,89,0.00,,,0.00,Wunderground v.1.15,2013-04-01 04:35:00,
2013-04-01 00:36:00,66.0,62.7,30.02,SE,131,2.0,5.0,89,0.00,,,0.00,Wunderground v.1.15,2013-04-01 04:36:00,
2013-04-01 00:38:00,66.0,62.7,30.02,South,190,1.0,5.0,89,0.00,,,0.00,Wunderground v.1.15,2013-04-01 04:38:00,
2013-04-01 00:39:00,66.0,62.7,30.02,SE,134,3.0,5.0,89,0.00,,,0.00,Wunderground v.1.15,2013-04-01 04:39:00,
2013-04-01 00:42:00,66.0,62.7,30.02,SW,221,2.0,3.0,89,0.00,,,0.00,Wunderground v.1.15,2013-04-01 04:42:00,
2013-04-01 00:43:00,66.0,62.7,30.02,South,181,2.0,3.0,89,0.00,,,0.00,Wunderground v.1.15,2013-04-01 04:43:00,
2013-04-01 00:44:00,66.0,62.7,30.02,SSE,148,3.0,3.0,89,0.00,,,0.00,Wunderground v.1.15,2013-04-01 04:44:00,
2013-04-01 00:49:00,66.1,62.8,30.02,SE,136,4.0,4.0,89,0.00,,,0.00,Wunderground v.1.15,2013-04-01 04:49:00,
2013-04-01 00:51:00,66.1,62.8,30.02,SE,129,5.0,5.0,89,0.00,,,0.00,Wunderground v.1.15,2013-04-01 04:51:00,
2013-04-01 00:53:00,66.2,62.9,30.02,SSE,158,5.0,5.0,89,0.00,,,0.00,Wunderground v.1.15,2013-04-01 04:53:00,
2013-04-01 00:57:00,66.2,62.9,30.02,SE,127,1.0,5.0,89,0.00,,,0.00,Wunderground v.1.15,2013-04-01 04:57:00,
2013-04-01 01:00:00,66.2,62.9,30.01,SSW,203,3.0,3.0,89,0.00,,,0.00,Wunderground v.1.15,2013-04-01 05:00:00,
2013-04-01 01:02:00,66.3,63.0,30.01,SSE,165,3.0,4.0,89,0.00,,,0.00,Wunderground v.1.15,2013-04-01 05:02:00,
2013-04-01 01:07:00,66.3,63.0,30.01,SE,128,2.0,4.0,89,0.00,,,0.00,Wunderground v.1.15,2013-04-01 05:07:00,
2013-04-01 01:09:00,66.3,63.0,30.01,SE,124,1.0,5.0,89,0.00,,,0.00,Wunderground v.1.15,2013-04-01 05:09:00,
2013-04-01 01:11:00,66.2,62.9,30.01,SSE,150,5.0,5.0,89,0.00,,,0.00,Wunderground v.1.15,2013-04-01 05:11:00,
2013-04-01 01:15:00,66.3,63.0,30.01,SSW,203,1.0,5.0,89,0.00,,,0.00,Wunderground v.1.15,2013-04-01 05:15:00,
2013-04-01 01:16:00,66.2,62.9,30.01,SE,141,3.0,5.0,89,0.00,,,0.00,Wunderground v.1.15,2013-04-01 05:16:00,
2013-04-01 01:17:00,66.3,63.0,30.01,ESE,114,3.0,5.0,89,0.00,,,0.00,Wunderground v.1.15,2013-04-01 05:17:00,
2013-04-01 01:22:00,66.3,63.0,30.01,SSE,149,5.0,5.0,89,0.00,,,0.00,Wunderground v.1.15,2013-04-01 05:22:00,
2013-04-01 01:24:00,66.3,63.0,30.01,SE,136,1.0,5.0,89,0.00,,,0.00,Wunderground v.1.15,2013-04-01 05:24:00,
2013-04-01 01:27:00,66.3,63.0,30.01,South,190,2.0,5.0,89,0.00,,,0.00,Wunderground v.1.15,2013-04-01 05:27:00,
2013-04-01 01:28:00,66.4,63.1,30.01,South,173,1.0,5.0,89,0.00,,,0.00,Wunderground v.1.15,2013-04-01 05:28:00,
2013-04-01 01:33:00,66.5,63.2,30.01,South,176,1.0,7.0,89,0.00,,,0.00,Wunderground v.1.15,2013-04-01 05:33:00,
2013-04-01 01:36:00,66.6,63.3,30.01,SSE,163,2.0,7.0,89,0.00,,,0.00,Wunderground v.1.15,2013-04-01 05:36:00,
2013-04-01 01:37:00,66.6,63.3,30.01,ESE,121,1.0,7.0,89,0.00,,,0.00,Wunderground v.1.15,2013-04-01 05:37:00,
2013-04-01 01:41:00,66.7,63.0,30.01,SSE,157,4.0,4.0,88,0.00,,,0.00,Wunderground v.1.15,2013-04-01 05:41:00,
2013-04-01 01:42:00,66.7,63.0,30.01,SW,228,6.0,6.0,88,0.00,,,0.00,Wunderground v.1.15,2013-04-01 05:42:00,
2013-04-01 01:43:00,66.8,63.1,30.01,SE,131,3.0,6.0,88,0.00,,,0.00,Wunderground v.1.15,2013-04-01 05:43:00,
2013-04-01 01:46:00,66.8,63.1,30.01,South,170,4.0,6.0,88,0.00,,,0.00,Wunderground v.1.15,2013-04-01 05:46:00,
2013-04-01 01:48:00,66.9,63.2,30.01,SSE,167,5.0,6.0,88,0.00,,,0.00,Wunderground v.1.15,2013-04-01 05:48:00,
2013-04-01 01:50:00,66.9,63.2,30.01,SE,134,6.0,6.0,88,0.00,,,0.00,Wunderground v.1.15,2013-04-01 05:50:00,
2013-04-01 01:51:00,66.9,63.2,30.01,SE,137,5.0,6.0,88,0.00,,,0.00,Wunderground v.1.15,2013-04-01 05:51:00,
2013-04-01 01:54:00,67.0,63.3,30.01,SSE,151,2.0,6.0,88,0.00,,,0.00,Wunderground v.1.15,2013-04-01 05:54:00,
2013-04-01 01:56:00,67.0,63.3,30.01,SE,124,3.0,6.0,88,0.00,,,0.00,Wunderground v.1.15,2013-04-01 05:56:00,
2013-04-01 01:57:00,67.0,63.3,30.01,SE,124,3.0,6.0,88,0.00,,,0.00,Wunderground v.1.15,2013-04-01 05:57:00,
2013-04-01 02:00:00,67.1,63.4,30.01,SSE,150,4.0,4.0,88,0.00,,,0.00,Wunderground v.1.15,2013-04-01 06:00:00,
2013-04-01 02:01:00,67.1,63.4,30.01,SE,145,4.0,4.0,88,0.00,,,0.00,Wunderground v.1.15,2013-04-01 06:01:00,
2013-04-01 02:02:00,67.2,63.5,30.01,SE,133,4.0,6.0,88,0.00,,,0.00,Wunderground v.1.15,2013-04-01 06:02:00,
2013-04-01 02:06:00,67.3,63.6,30.01,SE,128,2.0,10.0,88,0.00,,,0.00,Wunderground v.1.15,2013-04-01 06:06:00,
2013-04-01 02:07:00,67.3,63.6,30.01,South,188,7.0,10.0,88,0.00,,,0.00,Wunderground v.1.15,2013-04-01 06:07:00,
2013-04-01 02:11:00,67.5,63.8,30.01,South,191,3.0,9.0,88,0.00,,,0.00,Wunderground v.1.15,2013-04-01 06:11:00,
2013-04-01 02:12:00,67.6,63.9,30.01,SE,143,2.0,9.0,88,0.00,,,0.00,Wunderground v.1.15,2013-04-01 06:12:00,
2013-04-01 02:17:00,67.7,63.7,30.01,SSW,205,3.0,9.0,87,0.00,,,0.00,Wunderground v.1.15,2013-04-01 06:17:00,
2013-04-01 02:22:00,67.8,63.8,30.00,South,180,2.0,11.0,87,0.00,,,0.00,Wunderground v.1.15,2013-04-01 06:22:00,
2013-04-01 02:27:00,67.9,63.9,30.00,ESE,107,6.0,11.0,87,0.00,,,0.00,Wunderground v.1.15,2013-04-01 06:27:00,
2013-04-01 02:32:00,67.9,63.9,30.00,SSE,155,5.0,8.0,87,0.00,,,0.00,Wunderground v.1.15,2013-04-01 06:32:00,
2013-04-01 02:33:00,67.9,63.9,30.00,SSW,200,3.0,8.0,87,0.00,,,0.00,Wunderground v.1.15,2013-04-01 06:33:00,
2013-04-01 02:37:00,67.8,64.1,30.00,SE,144,5.0,9.0,88,0.00,,,0.00,Wunderground v.1.15,2013-04-01 06:37:00,
2013-04-01 02:38:00,67.8,64.1,30.00,SE,136,8.0,9.0,88,0.00,,,0.00,Wunderground v.1.15,2013-04-01 06:38:00,
2013-04-01 02:42:00,67.7,64.0,30.00,SSE,161,4.0,9.0,88,0.00,,,0.00,Wunderground v.1.15,2013-04-01 06:42:00,
2013-04-01 02:44:00,67.7,64.0,30.00,South,183,2.0,9.0,88,0.00,,,0.00,Wunderground v.1.15,2013-04-01 06:44:00,
2013-04-01 02:47:00,67.7,64.0,30.00,SSW,207,4.0,9.0,88,0.00,,,0.00,Wunderground v.1.15,2013-04-01 06:47:00,
2013-04-01 02:48:00,67.7,64.0,30.00,SSW,200,5.0,9.0,88,0.00,,,0.00,Wunderground v.1.15,2013-04-01 06:48:00,
2013-04-01 02:49:00,67.7,64.0,30.00,SE,135,2.0,9.0,88,0.00,,,0.00,Wunderground v.1.15,2013-04-01 06:49:00,
2013-04-01 02:52:00,67.7,64.0,30.00,SSE,152,4.0,7.0,88,0.00,,,0.00,Wunderground v.1.15,2013-04-01 06:52:00,
2013-04-01 02:53:00,67.7,64.0,30.00,SSE,160,3.0,7.0,88,0.00,,,0.00,Wunderground v.1.15,2013-04-01 06:53:00,
2013-04-01 02:54:00,67.7,64.0,30.00,SSE,160,1.0,7.0,88,0.00,,,0.00,Wunderground v.1.15,2013-04-01 06:54:00,
2013-04-01 02:58:00,67.7,64.0,30.00,SSW,210,3.0,8.0,88,0.00,,,0.00,Wunderground v.1.15,2013-04-01 06:58:00,
2013-04-01 02:59:00,67.7,64.0,30.00,South,188,2.0,8.0,88,0.00,,,0.00,Wunderground v.1.15,2013-04-01 06:59:00,
2013-04-01 03:03:00,67.7,64.0,29.99,SSE,159,5.0,8.0,88,0.00,,,0.00,Wunderground v.1.15,2013-04-01 07:03:00,
2013-04-01 03:04:00,67.6,63.9,29.99,SSW,192,2.0,8.0,88,0.00,,,0.00,Wunderground v.1.15,2013-04-01 07:04:00,
2013-04-01 03:05:00,67.6,63.9,29.99,SSW,197,1.0,8.0,88,0.00,,,0.00,Wunderground v.1.15,2013-04-01 07:05:00,
2013-04-01 03:08:00,67.6,64.2,29.99,ESE,119,6.0,8.0,89,0.00,,,0.00,Wunderground v.1.15,2013-04-01 07:08:00,
2013-04-01 03:09:00,67.5,64.1,29.99,South,181,3.0,8.0,89,0.00,,,0.00,Wunderground v.1.15,2013-04-01 07:09:00,
2013-04-01 03:10:00,67.5,64.1,29.99,SSE,167,5.0,6.0,89,0.00,,,0.00,Wunderground v.1.15,2013-04-01 07:10:00,
2013-04-01 03:13:00,67.5,64.1,29.99,South,177,3.0,9.0,89,0.00,,,0.00,Wunderground v.1.15,2013-04-01 07:13:00,
2013-04-01 03:14:00,67.5,64.1,29.99,SE,143,2.0,9.0,89,0.00,,,0.00,Wunderground v.1.15,2013-04-01 07:14:00,
2013-04-01 03:15:00,67.5,64.1,29.99,SE,143,3.0,9.0,89,0.00,,,0.00,Wunderground v.1.15,2013-04-01 07:15:00,
2013-04-01 03:18:00,67.5,64.1,29.98,SE,131,6.0,9.0,89,0.00,,,0.00,Wunderground v.1.15,2013-04-01 07:18:00,
2013-04-01 03:19:00,67.5,64.1,29.98,SE,144,4.0,9.0,89,0.00,,,0.00,Wunderground v.1.15,2013-04-01 07:19:00,
2013-04-01 03:20:00,67.5,64.1,29.98,SE,139,4.0,5.0,89,0.00,,,0.00,Wunderground v.1.15,2013-04-01 07:20:00,
2013-04-01 03:23:00,67.5,64.1,29.98,SE,136,3.0,8.0,89,0.00,,,0.00,Wunderground v.1.15,2013-04-01 07:23:00,
2013-04-01 03:24:00,67.5,64.1,29.98,SE,133,0.0,8.0,89,0.00,,,0.00,Wunderground v.1.15,2013-04-01 07:24:00,
2013-04-01 03:25:00,67.6,64.2,29.98,SSE,150,6.0,8.0,89,0.00,,,0.00,Wunderground v.1.15,2013-04-01 07:25:00,
2013-04-01 03:28:00,67.5,64.1,29.98,SSE,150,2.0,8.0,89,0.00,,,0.00,Wunderground v.1.15,2013-04-01 07:28:00,
2013-04-01 03:29:00,67.5,64.1,29.98,SE,132,8.0,8.0,89,0.00,,,0.00,Wunderground v.1.15,2013-04-01 07:29:00,
2013-04-01 03:30:00,67.6,64.2,29.98,SE,145,5.0,8.0,89,0.00,,,0.00,Wunderground v.1.15,2013-04-01 07:30:00,
2013-04-01 03:33:00,67.5,64.1,29.98,SE,135,2.0,8.0,89,0.00,,,0.00,Wunderground v.1.15,2013-04-01 07:33:00,
2013-04-01 03:35:00,67.5,64.1,29.98,SSE,162,2.0,8.0,89,0.00,,,0.00,Wunderground v.1.15,2013-04-01 07:35:00,
2013-04-01 03:39:00,67.5,64.1,29.98,SE,139,5.0,8.0,89,0.00,,,0.00,Wunderground v.1.15,2013-04-01 07:39:00,
2013-04-01 03:40:00,67.5,64.5,29.98,SE,132,6.0,7.0,90,0.00,,,0.00,Wunderground v.1.15,2013-04-01 07:40:00,
2013-04-01 03:44:00,67.5,64.5,29.98,SSE,163,2.0,7.0,90,0.00,,,0.00,Wunderground v.1.15,2013-04-01 07:44:00,
2013-04-01 03:45:00,67.5,64.5,29.98,SSE,163,1.0,7.0,90,0.00,,,0.00,Wunderground v.1.15,2013-04-01 07:45:00,
2013-04-01 03:49:00,67.5,64.5,29.98,ESE,112,5.0,7.0,90,0.00,,,0.00,Wunderground v.1.15,2013-04-01 07:49:00,
2013-04-01 03:50:00,67.5,64.5,29.98,SSE,157,2.0,4.0,90,0.00,,,0.00,Wunderground v.1.15,2013-04-01 07:50:00,
2013-04-01 03:54:00,67.5,64.5,29.98,West,259,3.0,6.0,90,0.00,,,0.00,Wunderground v.1.15,2013-04-01 07:54:00,
2013-04-01 03:55:00,67.5,64.5,29.98,SSE,152,2.0,6.0,90,0.00,,,0.00,Wunderground v.1.15,2013-04-01 07:55:00,
2013-04-01 03:57:00,67.4,64.4,29.98,SE,143,2.0,6.0,90,0.00,,,0.00,Wunderground v.1.15,2013-04-01 07:57:00,
2013-04-01 03:59:00,67.5,64.5,29.98,SSE,158,2.0,6.0,90,0.00,,,0.00,Wunderground v.1.15,2013-04-01 07:59:00,
2013-04-01 04:00:00,67.5,64.5,29.98,SW,214,2.0,4.0,90,0.00,,,0.00,Wunderground v.1.15,2013-04-01 08:00:00,
2013-04-01 04:01:00,67.5,64.5,29.98,South,191,5.0,5.0,90,0.00,,,0.00,Wunderground v.1.15,2013-04-01 08:01:00,
2013-04-01 04:03:00,67.5,64.5,29.98,SSE,151,7.0,10.0,90,0.00,,,0.00,Wunderground v.1.15,2013-04-01 08:03:00,
2013-04-01 04:04:00,67.5,64.5,29.98,South,172,5.0,10.0,90,0.00,,,0.00,Wunderground v.1.15,2013-04-01 08:04:00,
2013-04-01 04:05:00,67.5,64.5,29.98,SE,143,3.0,10.0,90,0.00,,,0.00,Wunderground v.1.15,2013-04-01 08:05:00,
2013-04-01 04:06:00,67.5,64.5,29.98,SE,134,7.0,10.0,90,0.00,,,0.00,Wunderground v.1.15,2013-04-01 08:06:00,
2013-04-01 04:08:00,67.5,64.5,29.98,SSE,160,4.0,10.0,90,0.00,,,0.00,Wunderground v.1.15,2013-04-01 08:08:00,
2013-04-01 04:09:00,67.5,64.5,29.98,SSW,212,1.0,10.0,90,0.00,,,0.00,Wunderground v.1.15,2013-04-01 08:09:00,
2013-04-01 04:11:00,67.5,64.5,29.98,South,187,6.0,6.0,90,0.00,,,0.00,Wunderground v.1.15,2013-04-01 08:11:00,
2013-04-01 04:14:00,67.5,64.5,29.98,South,179,5.0,6.0,90,0.00,,,0.00,Wunderground v.1.15,2013-04-01 08:14:00,
2013-04-01 04:16:00,67.5,64.5,29.98,South,169,5.0,7.0,90,0.00,,,0.00,Wunderground v.1.15,2013-04-01 08:16:00,
2013-04-01 04:19:00,67.4,64.4,29.97,SSE,163,2.0,4.0,90,0.00,,,0.00,Wunderground v.1.15,2013-04-01 08:19:00,
2013-04-01 04:20:00,67.4,64.4,29.97,SE,133,3.0,4.0,90,0.00,,,0.00,Wunderground v.1.15,2013-04-01 08:20:00,
2013-04-01 04:21:00,67.4,64.4,29.97,South,183,2.0,4.0,90,0.00,,,0.00,Wunderground v.1.15,2013-04-01 08:21:00,
2013-04-01 04:25:00,67.4,64.7,29.97,SSE,163,2.0,7.0,91,0.00,,,0.00,Wunderground v.1.15,2013-04-01 08:25:00,
2013-04-01 04:26:00,67.4,64.7,29.97,SSE,162,4.0,7.0,91,0.00,,,0.00,Wunderground v.1.15,2013-04-01 08:26:00,
2013-04-01 04:30:00,67.3,64.6,29.98,South,183,4.0,4.0,91,0.00,,,0.00,Wunderground v.1.15,2013-04-01 08:30:00,
2013-04-01 04:31:00,67.3,64.6,29.98,SSW,193,2.0,6.0,91,0.00,,,0.00,Wunderground v.1.15,2013-04-01 08:31:00,
2013-04-01 04:35:00,67.3,64.6,29.98,South,181,3.0,6.0,91,0.00,,,0.00,Wunderground v.1.15,2013-04-01 08:35:00,
2013-04-01 04:36:00,67.3,64.6,29.98,SW,218,3.0,6.0,91,0.00,,,0.00,Wunderground v.1.15,2013-04-01 08:36:00,
2013-04-01 04:37:00,67.3,64.6,29.99,South,191,3.0,6.0,91,0.00,,,0.00,Wunderground v.1.15,2013-04-01 08:37:00,
2013-04-01 04:40:00,67.3,64.6,29.99,SSE,151,3.0,6.0,91,0.00,,,0.00,Wunderground v.1.15,2013-04-01 08:40:00,
2013-04-01 04:41:00,67.3,64.6,29.99,SSW,207,3.0,6.0,91,0.00,,,0.00,Wunderground v.1.15,2013-04-01 08:41:00,
2013-04-01 04:42:00,67.3,64.6,29.99,South,181,2.0,6.0,91,0.00,,,0.00,Wunderground v.1.15,2013-04-01 08:42:00,
2013-04-01 04:43:00,67.3,64.6,29.99,SW,218,3.0,6.0,91,0.00,,,0.00,Wunderground v.1.15,2013-04-01 08:43:00,
2013-04-01 04:45:00,67.3,64.6,29.99,SSW,197,3.0,6.0,91,0.00,,,0.00,Wunderground v.1.15,2013-04-01 08:45:00,
2013-04-01 04:46:00,67.3,64.6,29.99,SE,138,3.0,6.0,91,0.00,,,0.00,Wunderground v.1.15,2013-04-01 08:46:00,
2013-04-01 04:48:00,67.2,64.5,29.99,SSE,149,0.0,6.0,91,0.00,,,0.00,Wunderground v.1.15,2013-04-01 08:48:00,
2013-04-01 04:50:00,67.2,64.5,29.99,SE,143,2.0,3.0,91,0.00,,,0.00,Wunderground v.1.15,2013-04-01 08:50:00,
2013-04-01 04:51:00,67.2,64.5,29.99,ESE,119,2.0,4.0,91,0.00,,,0.00,Wunderground v.1.15,2013-04-01 08:51:00,
2013-04-01 04:53:00,67.1,64.4,29.98,SE,129,3.0,5.0,91,0.00,,,0.00,Wunderground v.1.15,2013-04-01 08:53:00,
2013-04-01 04:54:00,67.1,64.4,29.98,SSW,203,1.0,5.0,91,0.00,,,0.00,Wunderground v.1.15,2013-04-01 08:54:00,
2013-04-01 04:55:00,67.1,64.4,29.98,South,169,2.0,5.0,91,0.00,,,0.00,Wunderground v.1.15,2013-04-01 08:55:00,
2013-04-01 04:56:00,67.1,64.4,29.99,SSE,154,2.0,5.0,91,0.00,,,0.00,Wunderground v.1.15,2013-04-01 08:56:00,
2013-04-01 04:58:00,67.0,64.3,29.99,SSW,205,2.0,5.0,91,0.00,,,0.00,Wunderground v.1.15,2013-04-01 08:58:00,
2013-04-01 04:59:00,67.0,64.3,29.99,South,188,3.0,5.0,91,0.00,,,0.00,Wunderground v.1.15,2013-04-01 08:59:00,
2013-04-01 05:00:00,66.9,64.2,29.99,SSE,163,3.0,4.0,91,0.00,,,0.00,Wunderground v.1.15,2013-04-01 09:00:00,
2013-04-01 05:02:00,66.9,64.5,29.99,SE,139,2.0,4.0,92,0.00,,,0.00,Wunderground v.1.15,2013-04-01 09:02:00,
2013-04-01 05:04:00,66.9,64.5,29.99,SE,137,2.0,4.0,92,0.00,,,0.00,Wunderground v.1.15,2013-04-01 09:04:00,
2013-04-01 05:07:00,66.8,64.4,29.99,SSW,199,2.0,4.0,92,0.00,,,0.00,Wunderground v.1.15,2013-04-01 09:07:00,
2013-04-01 05:09:00,66.8,64.4,29.99,SSW,207,0.0,4.0,92,0.00,,,0.00,Wunderground v.1.15,2013-04-01 09:09:00,
2013-04-01 05:12:00,66.7,64.3,29.99,South,187,1.0,2.0,92,0.00,,,0.00,Wunderground v.1.15,2013-04-01 09:12:00,
2013-04-01 05:14:00,66.7,64.3,29.99,South,191,1.0,2.0,92,0.00,,,0.00,Wunderground v.1.15,2013-04-01 09:14:00,
2013-04-01 05:17:00,66.6,64.2,29.99,SSW,211,2.0,3.0,92,0.00,,,0.00,Wunderground v.1.15,2013-04-01 09:17:00,
2013-04-01 05:19:00,66.6,64.2,29.99,SSW,194,2.0,3.0,92,0.00,,,0.00,Wunderground v.1.15,2013-04-01 09:19:00,
2013-04-01 05:22:00,66.5,64.1,29.99,SSE,165,1.0,3.0,92,0.00,,,0.00,Wunderground v.1.15,2013-04-01 09:22:00,
2013-04-01 05:24:00,66.5,64.1,29.99,SSE,152,3.0,3.0,92,0.00,,,0.00,Wunderground v.1.15,2013-04-01 09:24:00,
2013-04-01 05:27:00,66.4,64.0,29.99,SSW,195,0.0,3.0,92,0.00,,,0.00,Wunderground v.1.15,2013-04-01 09:27:00,
2013-04-01 05:28:00,66.4,64.0,29.99,SSE,158,1.0,3.0,92,0.00,,,0.00,Wunderground v.1.15,2013-04-01 09:28:00,
2013-04-01 05:29:00,66.4,64.0,29.99,SW,225,0.0,3.0,92,0.00,,,0.00,Wunderground v.1.15,2013-04-01 09:29:00,
2013-04-01 05:30:00,66.3,63.9,29.99,SW,225,0.0,1.0,92,0.00,,,0.00,Wunderground v.1.15,2013-04-01 09:30:00,
2013-04-01 05:32:00,66.2,64.1,29.99,SSW,195,2.0,3.0,93,0.00,,,0.00,Wunderground v.1.15,2013-04-01 09:32:00,
2013-04-01 05:33:00,66.2,64.1,29.99,South,172,0.0,3.0,93,0.00,,,0.00,Wunderground v.1.15,2013-04-01 09:33:00,
2013-04-01 05:35:00,66.2,64.1,29.99,South,175,0.0,3.0,93,0.00,,,0.00,Wunderground v.1.15,2013-04-01 09:35:00,
2013-04-01 05:37:00,66.2,64.1,29.99,SSW,208,0.0,3.0,93,0.00,,,0.00,Wunderground v.1.15,2013-04-01 09:37:00,
2013-04-01 05:38:00,66.2,64.1,29.99,SSW,212,2.0,3.0,93,0.00,,,0.00,Wunderground v.1.15,2013-04-01 09:38:00,
2013-04-01 05:40:00,66.2,64.1,29.99,SSE,149,2.0,3.0,93,0.00,,,0.00,Wunderground v.1.15,2013-04-01 09:40:00,
2013-04-01 05:42:00,66.1,64.0,29.99,SSE,160,2.0,3.0,93,0.00,,,0.00,Wunderground v.1.15,2013-04-01 09:42:00,
2013-04-01 05:44:00,66.1,64.0,29.99,South,169,2.0,3.0,93,0.00,,,0.00,Wunderground v.1.15,2013-04-01 09:44:00,
2013-04-01 05:45:00,66.1,64.0,29.99,SSE,160,0.0,3.0,93,0.00,,,0.00,Wunderground v.1.15,2013-04-01 09:45:00,
2013-04-01 05:48:00,66.0,63.9,29.99,SSE,160,0.0,3.0,93,0.00,,,0.00,Wunderground v.1.15,2013-04-01 09:48:00,
2013-04-01 05:49:00,66.0,63.9,29.99,SE,142,1.0,3.0,93,0.00,,,0.00,Wunderground v.1.15,2013-04-01 09:49:00,
2013-04-01 05:50:00,66.0,63.9,29.99,SE,142,0.0,1.0,93,0.00,,,0.00,Wunderground v.1.15,2013-04-01 09:50:00,
2013-04-01 05:51:00,66.0,63.9,29.99,SE,142,0.0,1.0,93,0.00,,,0.00,Wunderground v.1.15,2013-04-01 09:51:00,
2013-04-01 05:53:00,65.9,63.8,29.99,SE,142,0.0,1.0,93,0.00,,,0.00,Wunderground v.1.15,2013-04-01 09:53:00,
2013-04-01 05:54:00,65.9,63.8,29.99,SE,142,0.0,1.0,93,0.00,,,0.00,Wunderground v.1.15,2013-04-01 09:54:00,
2013-04-01 05:55:00,65.9,63.8,29.99,SE,142,0.0,1.0,93,0.00,,,0.00,Wunderground v.1.15,2013-04-01 09:55:00,
2013-04-01 05:56:00,65.8,63.7,29.99,SE,142,0.0,1.0,93,0.00,,,0.00,Wunderground v.1.15,2013-04-01 09:56:00,
2013-04-01 05:58:00,65.8,63.7,29.99,SE,142,0.0,1.0,93,0.00,,,0.00,Wunderground v.1.15,2013-04-01 09:58:00,
2013-04-01 05:59:00,65.8,63.7,29.99,SE,142,0.0,1.0,93,0.00,,,0.00,Wunderground v.1.15,2013-04-01 09:59:00,
2013-04-01 06:00:00,65.8,63.7,29.99,SE,143,0.0,0.0,93,0.00,,,0.00,Wunderground v.1.15,2013-04-01 10:00:00,
2013-04-01 06:02:00,65.7,63.6,29.99,SE,142,0.0,0.0,93,0.00,,,0.00,Wunderground v.1.15,2013-04-01 10:02:00,
2013-04-01 06:03:00,65.7,63.9,29.99,SE,142,1.0,1.0,94,0.00,,,0.00,Wunderground v.1.15,2013-04-01 10:03:00,
2013-04-01 06:04:00,65.7,63.9,29.99,SE,142,0.0,1.0,94,0.00,,,0.00,Wunderground v.1.15,2013-04-01 10:04:00,
2013-04-01 06:05:00,65.7,63.9,29.99,SE,142,0.0,1.0,94,0.00,,,0.00,Wunderground v.1.15,2013-04-01 10:05:00,
2013-04-01 06:07:00,65.7,63.9,29.99,SE,143,0.0,1.0,94,0.00,,,0.00,Wunderground v.1.15,2013-04-01 10:07:00,
2013-04-01 06:09:00,65.7,63.9,30.00,SE,143,0.0,1.0,94,0.00,,,0.00,Wunderground v.1.15,2013-04-01 10:09:00,
2013-04-01 06:10:00,65.7,63.9,30.00,SE,143,0.0,0.0,94,0.00,,,0.00,Wunderground v.1.15,2013-04-01 10:10:00,
2013-04-01 06:12:00,65.6,63.8,30.00,SSW,212,1.0,2.0,94,0.00,,,0.00,Wunderground v.1.15,2013-04-01 10:12:00,
2013-04-01 06:14:00,65.7,63.9,30.00,SSW,197,1.0,2.0,94,0.00,,,0.00,Wunderground v.1.15,2013-04-01 10:14:00,
2013-04-01 06:15:00,65.6,63.8,30.00,SSW,193,0.0,2.0,94,0.00,,,0.00,Wunderground v.1.15,2013-04-01 10:15:00,
2013-04-01 06:16:00,65.6,63.8,30.00,SSE,152,2.0,2.0,94,0.00,,,0.00,Wunderground v.1.15,2013-04-01 10:16:00,
2013-04-01 06:17:00,65.6,63.8,30.00,SSE,155,1.0,2.0,94,0.00,,,0.00,Wunderground v.1.15,2013-04-01 10:17:00,
2013-04-01 06:19:00,65.6,63.8,30.00,South,183,1.0,2.0,94,0.00,,,0.00,Wunderground v.1.15,2013-04-01 10:19:00,
2013-04-01 06:20:00,65.6,63.8,30.00,SSE,153,2.0,2.0,94,0.00,,,0.00,Wunderground v.1.15,2013-04-01 10:20:00,
2013-04-01 06:22:00,65.6,63.8,29.99,SE,130,1.0,2.0,94,0.00,,,0.00,Wunderground v.1.15,2013-04-01 10:22:00,
2013-04-01 06:24:00,65.6,63.8,29.99,SSW,197,2.0,3.0,94,0.00,,,0.00,Wunderground v.1.15,2013-04-01 10:24:00,
2013-04-01 06:25:00,65.6,63.8,29.99,SSE,165,1.0,3.0,94,0.00,,,0.00,Wunderground v.1.15,2013-04-01 10:25:00,
2013-04-01 06:27:00,65.7,63.9,29.99,SSE,165,3.0,3.0,94,0.00,,,0.00,Wunderground v.1.15,2013-04-01 10:27:00,
2013-04-01 06:28:00,65.6,63.8,29.99,SSE,159,2.0,3.0,94,0.00,,,0.00,Wunderground v.1.15,2013-04-01 10:28:00,
2013-04-01 06:29:00,65.6,63.8,29.99,SE,130,1.0,2.0,94,0.00,,,0.00,Wunderground v.1.15,2013-04-01 10:29:00,
2013-04-01 06:30:00,65.7,63.9,29.99,South,181,2.0,3.0,94,0.00,,,0.00,Wunderground v.1.15,2013-04-01 10:30:00,
2013-04-01 06:33:00,65.7,63.9,29.99,SSE,150,1.0,5.0,94,0.00,,,0.00,Wunderground v.1.15,2013-04-01 10:33:00,
2013-04-01 06:34:00,65.7,63.9,29.99,ESE,115,2.0,5.0,94,0.00,,,0.00,Wunderground v.1.15,2013-04-01 10:34:00,
2013-04-01 06:35:00,65.7,63.9,29.99,SSW,208,2.0,5.0,94,0.00,,,0.00,Wunderground v.1.15,2013-04-01 10:35:00,
2013-04-01 06:38:00,65.8,64.0,29.99,SSE,155,2.0,5.0,94,0.00,,,0.00,Wunderground v.1.15,2013-04-01 10:38:00,
2013-04-01 06:39:00,65.8,64.0,29.99,SSE,155,3.0,5.0,94,0.00,,,0.00,Wunderground v.1.15,2013-04-01 10:39:00,
2013-04-01 06:40:00,65.8,64.0,29.98,SE,132,1.0,2.0,94,0.00,,,0.00,Wunderground v.1.15,2013-04-01 10:40:00,
2013-04-01 06:43:00,65.8,64.0,29.98,SE,139,3.0,4.0,94,0.00,,,0.00,Wunderground v.1.15,2013-04-01 10:43:00,
2013-04-01 06:44:00,65.8,64.0,29.98,SE,124,3.0,4.0,94,0.00,,,0.00,Wunderground v.1.15,2013-04-01 10:44:00,
2013-04-01 06:45:00,65.8,64.0,29.98,South,181,3.0,6.0,94,0.00,,,0.00,Wunderground v.1.15,2013-04-01 10:45:00,
2013-04-01 06:47:00,65.8,64.0,29.98,SE,142,2.0,6.0,94,0.00,,,0.00,Wunderground v.1.15,2013-04-01 10:47:00,
2013-04-01 06:48:00,65.9,64.4,29.98,SE,133,1.0,6.0,95,0.00,,,0.00,Wunderground v.1.15,2013-04-01 10:48:00,
2013-04-01 06:49:00,65.8,64.0,29.98,South,188,0.0,6.0,94,0.00,,,0.00,Wunderground v.1.15,2013-04-01 10:49:00,
2013-04-01 06:50:00,65.8,64.0,29.98,SE,130,1.0,2.0,94,0.00,,,0.00,Wunderground v.1.15,2013-04-01 10:50:00,
2013-04-01 06:52:00,65.8,64.3,29.98,ESE,107,0.0,2.0,95,0.00,,,0.00,Wunderground v.1.15,2013-04-01 10:52:00,
2013-04-01 06:53:00,65.9,64.4,29.99,ESE,107,1.0,2.0,95,0.00,,,0.00,Wunderground v.1.15,2013-04-01 10:53:00,
2013-04-01 06:54:00,65.8,64.0,29.99,ESE,108,0.0,2.0,94,0.00,,,0.00,Wunderground v.1.15,2013-04-01 10:54:00,
2013-04-01 06:55:00,65.8,64.0,29.99,ESE,108,1.0,2.0,94,0.00,,,0.00,Wunderground v.1.15,2013-04-01 10:55:00,
2013-04-01 06:57:00,65.8,64.3,29.99,ESE,111,0.0,2.0,95,0.00,,,0.00,Wunderground v.1.15,2013-04-01 10:57:00,
2013-04-01 06:58:00,65.9,64.4,29.99,ESE,111,1.0,2.0,95,0.00,,,0.00,Wunderground v.1.15,2013-04-01 10:58:00,
2013-04-01 06:59:00,65.9,64.4,29.98,ESE,111,1.0,1.0,95,0.00,,,0.00,Wunderground v.1.15,2013-04-01 10:59:00,
2013-04-01 07:01:00,65.9,64.4,29.98,ESE,115,0.0,2.0,95,0.00,,,0.00,Wunderground v.1.15,2013-04-01 11:01:00,
2013-04-01 07:02:00,65.8,64.3,29.98,ESE,115,1.0,2.0,95,0.00,,,0.00,Wunderground v.1.15,2013-04-01 11:02:00,
2013-04-01 07:03:00,65.9,64.4,29.98,East,101,2.0,2.0,95,0.00,,,0.00,Wunderground v.1.15,2013-04-01 11:03:00,
2013-04-01 07:04:00,65.9,64.4,29.98,East,101,0.0,3.0,95,0.00,,,0.00,Wunderground v.1.15,2013-04-01 11:04:00,
2013-04-01 07:07:00,65.9,64.4,29.99,SE,135,1.0,3.0,95,0.00,,,0.00,Wunderground v.1.15,2013-04-01 11:07:00,
2013-04-01 07:08:00,65.8,64.3,29.99,SSW,201,2.0,3.0,95,0.00,,,0.00,Wunderground v.1.15,2013-04-01 11:08:00,
2013-04-01 07:09:00,65.8,64.3,29.99,SSW,200,3.0,3.0,95,0.00,,,0.00,Wunderground v.1.15,2013-04-01 11:09:00,
2013-04-01 07:12:00,65.9,64.4,29.99,SSW,200,2.0,3.0,95,0.00,,,0.00,Wunderground v.1.15,2013-04-01 11:12:00,
2013-04-01 07:13:00,65.9,64.4,29.99,SSW,195,2.0,3.0,95,0.00,,,0.00,Wunderground v.1.15,2013-04-01 11:13:00,
2013-04-01 07:14:00,66.0,64.5,29.99,SSW,194,2.0,3.0,95,0.00,,,0.00,Wunderground v.1.15,2013-04-01 11:14:00,
2013-04-01 07:15:00,66.0,64.5,29.99,South,183,2.0,3.0,95,0.00,,,0.00,Wunderground v.1.15,2013-04-01 11:15:00,
2013-04-01 07:17:00,66.1,64.6,29.99,SE,135,5.0,5.0,95,0.00,,,0.00,Wunderground v.1.15,2013-04-01 11:17:00,
2013-04-01 07:18:00,66.1,64.6,29.99,South,174,1.0,5.0,95,0.00,,,0.00,Wunderground v.1.15,2013-04-01 11:18:00,
2013-04-01 07:19:00,66.1,64.6,29.99,SSE,158,3.0,5.0,95,0.00,,,0.00,Wunderground v.1.15,2013-04-01 11:19:00,
2013-04-01 07:20:00,66.2,64.7,29.99,South,179,2.0,3.0,95,0.00,,,0.00,Wunderground v.1.15,2013-04-01 11:20:00,
2013-04-01 07:22:00,66.2,64.7,30.00,ESE,120,5.0,5.0,95,0.00,,,0.00,Wunderground v.1.15,2013-04-01 11:22:00,
2013-04-01 07:23:00,66.3,64.8,30.00,South,186,1.0,5.0,95,0.00,,,0.00,Wunderground v.1.15,2013-04-01 11:23:00,
2013-04-01 07:24:00,66.3,64.8,30.00,SSW,210,2.0,5.0,95,0.00,,,0.00,Wunderground v.1.15,2013-04-01 11:24:00,
2013-04-01 07:25:00,66.4,64.9,30.00,SSW,200,3.0,5.0,95,0.00,,,0.00,Wunderground v.1.15,2013-04-01 11:25:00,
2013-04-01 07:27:00,66.4,64.9,30.00,SSW,212,4.0,5.0,95,0.00,,,0.00,Wunderground v.1.15,2013-04-01 11:27:00,
2013-04-01 07:28:00,66.5,65.0,30.00,SSE,167,5.0,6.0,95,0.00,,,0.00,Wunderground v.1.15,2013-04-01 11:28:00,
2013-04-01 07:29:00,66.5,65.0,30.00,SE,139,4.0,6.0,95,0.00,,,0.00,Wunderground v.1.15,2013-04-01 11:29:00,
2013-04-01 07:30:00,66.6,65.1,30.00,SE,133,2.0,4.0,95,0.00,,,0.00,Wunderground v.1.15,2013-04-01 11:30:00,
2013-04-01 07:32:00,66.6,65.1,30.00,South,181,6.0,6.0,95,0.00,,,0.00,Wunderground v.1.15,2013-04-01 11:32:00,
2013-04-01 07:33:00,66.6,65.1,30.00,South,186,3.0,6.0,95,0.00,,,0.00,Wunderground v.1.15,2013-04-01 11:33:00,
2013-04-01 07:34:00,66.6,65.1,30.00,SSW,197,4.0,6.0,95,0.00,,,0.00,Wunderground v.1.15,2013-04-01 11:34:00,
2013-04-01 07:35:00,66.7,65.2,30.00,SSE,165,3.0,6.0,95,0.00,,,0.00,Wunderground v.1.15,2013-04-01 11:35:00,
2013-04-01 07:38:00,66.7,65.2,30.00,SE,141,5.0,6.0,95,0.00,,,0.00,Wunderground v.1.15,2013-04-01 11:38:00,
2013-04-01 07:39:00,66.7,65.2,30.00,SSW,200,1.0,6.0,95,0.00,,,0.00,Wunderground v.1.15,2013-04-01 11:39:00,
2013-04-01 07:41:00,66.7,65.2,30.01,SSW,200,6.0,6.0,95,0.00,,,0.00,Wunderground v.1.15,2013-04-01 11:41:00,
2013-04-01 07:43:00,66.7,65.2,30.01,SE,127,3.0,6.0,95,0.00,,,0.00,Wunderground v.1.15,2013-04-01 11:43:00,
2013-04-01 07:44:00,66.8,65.3,30.01,SSE,166,2.0,6.0,95,0.00,,,0.00,Wunderground v.1.15,2013-04-01 11:44:00,
2013-04-01 07:47:00,66.8,65.3,30.01,SSW,203,5.0,6.0,95,0.00,,,0.00,Wunderground v.1.15,2013-04-01 11:47:00,
2013-04-01 07:48:00,66.9,65.4,30.01,SW,229,3.0,6.0,95,0.00,,,0.00,Wunderground v.1.15,2013-04-01 11:48:00,
2013-04-01 07:49:00,66.9,65.4,30.01,SW,215,2.0,6.0,95,0.00,,,0.00,Wunderground v.1.15,2013-04-01 11:49:00,
2013-04-01 07:50:00,66.9,65.4,30.00,SSW,195,3.0,4.0,95,0.00,,,0.00,Wunderground v.1.15,2013-04-01 11:50:00,
2013-04-01 07:52:00,66.9,65.4,30.01,South,181,2.0,6.0,95,0.00,,,0.00,Wunderground v.1.15,2013-04-01 11:52:00,
2013-04-01 07:53:00,66.9,65.4,30.01,South,176,2.0,6.0,95,0.00,,,0.00,Wunderground v.1.15,2013-04-01 11:53:00,
2013-04-01 07:55:00,66.9,65.4,30.01,SSW,199,3.0,6.0,95,0.00,,,0.00,Wunderground v.1.15,2013-04-01 11:55:00,
2013-04-01 07:57:00,67.0,65.5,30.01,SSW,199,2.0,7.0,95,0.00,,,0.00,Wunderground v.1.15,2013-04-01 11:57:00,
2013-04-01 07:58:00,67.0,65.5,30.01,SE,138,1.0,7.0,95,0.00,,,0.00,Wunderground v.1.15,2013-04-01 11:58:00,
2013-04-01 08:00:00,67.1,65.6,30.01,South,177,2.0,4.0,95,0.00,,,0.00,Wunderground v.1.15,2013-04-01 12:00:00,
2013-04-01 08:02:00,67.1,65.6,30.01,SSW,201,3.0,5.0,95,0.00,,,0.00,Wunderground v.1.15,2013-04-01 12:02:00,
2013-04-01 08:03:00,67.1,65.6,30.01,South,187,4.0,5.0,95,0.00,,,0.00,Wunderground v.1.15,2013-04-01 12:03:00,
2013-04-01 08:05:00,67.1,65.6,30.01,SSW,205,5.0,8.0,95,0.00,,,0.00,Wunderground v.1.15,2013-04-01 12:05:00,
2013-04-01 08:07:00,67.1,65.6,30.01,SSW,198,5.0,8.0,95,0.00,,,0.00,Wunderground v.1.15,2013-04-01 12:07:00,
2013-04-01 08:08:00,67.2,65.7,30.01,SSW,203,2.0,8.0,95,0.00,,,0.00,Wunderground v.1.15,2013-04-01 12:08:00,
2013-04-01 08:10:00,67.2,65.7,30.01,ESE,118,4.0,6.0,95,0.00,,,0.00,Wunderground v.1.15,2013-04-01 12:10:00,
2013-04-01 08:11:00,67.2,65.7,30.01,SSE,163,4.0,6.0,95,0.00,,,0.00,Wunderground v.1.15,2013-04-01 12:11:00,
2013-04-01 08:13:00,67.2,65.4,30.01,SSE,153,4.0,8.0,94,0.00,,,0.00,Wunderground v.1.15,2013-04-01 12:13:00,
2013-04-01 08:15:00,67.2,65.4,30.01,South,180,3.0,8.0,94,0.00,,,0.00,Wunderground v.1.15,2013-04-01 12:15:00,
2013-04-01 08:16:00,67.3,65.8,30.01,South,180,4.0,8.0,95,0.00,,,0.00,Wunderground v.1.15,2013-04-01 12:16:00,
2013-04-01 08:18:00,67.3,65.8,30.01,SSW,205,6.0,8.0,95,0.00,,,0.00,Wunderground v.1.15,2013-04-01 12:18:00,
2013-04-01 08:19:00,67.3,65.5,30.01,SSW,200,2.0,8.0,94,0.00,,,0.00,Wunderground v.1.15,2013-04-01 12:19:00,
2013-04-01 08:20:00,67.4,65.6,30.01,SSW,203,1.0,4.0,94,0.00,,,0.00,Wunderground v.1.15,2013-04-01 12:20:00,
2013-04-01 08:21:00,67.4,65.6,30.01,SSW,212,3.0,6.0,94,0.00,,,0.00,Wunderground v.1.15,2013-04-01 12:21:00,
2013-04-01 08:23:00,67.4,65.6,30.02,SSW,194,6.0,7.0,94,0.00,,,0.00,Wunderground v.1.15,2013-04-01 12:23:00,
2013-04-01 08:24:00,67.4,65.6,30.01,SSE,150,3.0,7.0,94,0.00,,,0.00,Wunderground v.1.15,2013-04-01 12:24:00,
2013-04-01 08:25:00,67.5,65.7,30.02,SSW,195,3.0,7.0,94,0.00,,,0.00,Wunderground v.1.15,2013-04-01 12:25:00,
2013-04-01 08:27:00,67.5,65.7,30.02,SSE,154,5.0,8.0,94,0.00,,,0.00,Wunderground v.1.15,2013-04-01 12:27:00,
2013-04-01 08:28:00,67.5,65.7,30.02,South,173,4.0,8.0,94,0.00,,,0.00,Wunderground v.1.15,2013-04-01 12:28:00,
2013-04-01 08:29:00,67.5,65.7,30.02,SSE,167,2.0,8.0,94,0.00,,,0.00,Wunderground v.1.15,2013-04-01 12:29:00,
2013-04-01 08:30:00,67.5,65.7,30.02,South,181,5.0,6.0,94,0.00,,,0.00,Wunderground v.1.15,2013-04-01 12:30:00,
2013-04-01 08:32:00,67.5,65.7,30.02,SSW,200,5.0,6.0,94,0.00,,,0.00,Wunderground v.1.15,2013-04-01 12:32:00,
2013-04-01 08:33:00,67.5,65.7,30.02,SSW,211,4.0,8.0,94,0.00,,,0.00,Wunderground v.1.15,2013-04-01 12:33:00,
2013-04-01 08:34:00,67.5,65.7,30.02,SSW,208,3.0,8.0,94,0.00,,,0.00,Wunderground v.1.15,2013-04-01 12:34:00,
2013-04-01 08:35:00,67.6,65.8,30.02,SSW,205,3.0,8.0,94,0.00,,,0.00,Wunderground v.1.15,2013-04-01 12:35:00,
2013-04-01 08:38:00,67.6,65.8,30.02,South,174,4.0,8.0,94,0.00,,,0.00,Wunderground v.1.15,2013-04-01 12:38:00,
2013-04-01 08:39:00,67.6,65.8,30.02,South,174,1.0,8.0,94,0.00,,,0.00,Wunderground v.1.15,2013-04-01 12:39:00,
2013-04-01 08:40:00,67.6,65.8,30.02,SSW,205,4.0,7.0,94,0.00,,,0.00,Wunderground v.1.15,2013-04-01 12:40:00,
2013-04-01 08:43:00,67.7,65.9,30.02,SSW,203,3.0,7.0,94,0.00,,,0.00,Wunderground v.1.15,2013-04-01 12:43:00,
2013-04-01 08:44:00,67.7,65.9,30.02,SW,228,3.0,7.0,94,0.00,,,0.00,Wunderground v.1.15,2013-04-01 12:44:00,
2013-04-01 08:45:00,67.7,65.9,30.02,SSW,200,5.0,7.0,94,0.00,,,0.00,Wunderground v.1.15,2013-04-01 12:45:00,
2013-04-01 08:48:00,67.7,65.9,30.03,SSW,200,5.0,7.0,94,0.00,,,0.00,Wunderground v.1.15,2013-04-01 12:48:00,
2013-04-01 08:49:00,67.8,66.0,30.03,SSW,193,6.0,9.0,94,0.00,,,0.00,Wunderground v.1.15,2013-04-01 12:49:00,
2013-04-01 08:50:00,67.8,66.0,30.03,South,172,2.0,6.0,94,0.00,,,0.00,Wunderground v.1.15,2013-04-01 12:50:00,
2013-04-01 08:53:00,68.0,66.2,30.03,South,173,6.0,8.0,94,0.00,,,0.00,Wunderground v.1.15,2013-04-01 12:53:00,
2013-04-01 08:54:00,68.0,66.2,30.03,SE,146,2.0,8.0,94,0.00,,,0.00,Wunderground v.1.15,2013-04-01 12:54:00,
2013-04-01 08:56:00,68.1,66.3,30.03,SSW,200,2.0,8.0,94,0.00,,,0.00,Wunderground v.1.15,2013-04-01 12:56:00,
2013-04-01 08:59:00,68.3,66.5,30.03,SSW,212,4.0,8.0,94,0.00,,,0.00,Wunderground v.1.15,2013-04-01 12:59:00,
2013-04-01 09:00:00,68.3,66.5,30.03,SSW,208,1.0,4.0,94,0.00,,,0.00,Wunderground v.1.15,2013-04-01 13:00:00,
2013-04-01 09:01:00,68.3,66.5,30.03,SSW,195,4.0,7.0,94,0.00,,,0.00,Wunderground v.1.15,2013-04-01 13:01:00,
2013-04-01 09:04:00,68.5,66.7,30.03,South,176,6.0,8.0,94,0.00,,,0.00,Wunderground v.1.15,2013-04-01 13:04:00,
2013-04-01 09:05:00,68.6,66.8,30.03,SSW,212,2.0,8.0,94,0.00,,,0.00,Wunderground v.1.15,2013-04-01 13:05:00,
2013-04-01 09:07:00,68.7,66.6,30.03,South,181,4.0,8.0,93,0.00,,,0.00,Wunderground v.1.15,2013-04-01 13:07:00,
2013-04-01 09:09:00,68.9,66.8,30.03,SSW,198,2.0,8.0,93,0.00,,,0.00,Wunderground v.1.15,2013-04-01 13:09:00,
2013-04-01 09:10:00,69.0,66.9,30.03,SSW,203,4.0,7.0,93,0.00,,,0.00,Wunderground v.1.15,2013-04-01 13:10:00,
2013-04-01 09:12:00,69.0,66.9,30.03,SW,219,4.0,8.0,93,0.00,,,0.00,Wunderground v.1.15,2013-04-01 13:12:00,
2013-04-01 09:14:00,69.1,67.0,30.03,SSW,207,7.0,9.0,93,0.00,,,0.00,Wunderground v.1.15,2013-04-01 13:14:00,
2013-04-01 09:15:00,69.1,67.0,30.03,SSW,210,6.0,9.0,93,0.00,,,0.00,Wunderground v.1.15,2013-04-01 13:15:00,
2013-04-01 09:17:00,69.1,66.7,30.04,SSW,208,5.0,9.0,92,0.00,,,0.00,Wunderground v.1.15,2013-04-01 13:17:00,
2013-04-01 09:19:00,69.1,66.7,30.04,SSW,212,5.0,10.0,92,0.00,,,0.00,Wunderground v.1.15,2013-04-01 13:19:00,
2013-04-01 09:20:00,69.1,66.7,30.04,SW,224,6.0,6.0,92,0.00,,,0.00,Wunderground v.1.15,2013-04-01 13:20:00,
2013-04-01 09:23:00,69.0,66.6,30.04,SW,222,7.0,9.0,92,0.00,,,0.00,Wunderground v.1.15,2013-04-01 13:23:00,
2013-04-01 09:24:00,69.0,66.6,30.04,South,191,5.0,9.0,92,0.00,,,0.00,Wunderground v.1.15,2013-04-01 13:24:00,
2013-04-01 09:25:00,69.0,66.6,30.03,SSW,207,4.0,9.0,92,0.00,,,0.00,Wunderground v.1.15,2013-04-01 13:25:00,
2013-04-01 09:29:00,69.0,66.6,30.04,SW,235,3.0,10.0,92,0.00,,,0.00,Wunderground v.1.15,2013-04-01 13:29:00,
2013-04-01 09:30:00,69.0,66.6,30.04,ESE,109,5.0,6.0,92,0.00,,,0.00,Wunderground v.1.15,2013-04-01 13:30:00,
2013-04-01 09:34:00,69.0,66.6,30.04,SSW,203,6.0,10.0,92,0.00,,,0.00,Wunderground v.1.15,2013-04-01 13:34:00,
2013-04-01 09:35:00,69.0,66.6,30.04,South,188,4.0,10.0,92,0.00,,,0.00,Wunderground v.1.15,2013-04-01 13:35:00,
2013-04-01 09:39:00,69.2,66.8,30.04,WSW,246,10.0,10.0,92,0.00,,,0.00,Wunderground v.1.15,2013-04-01 13:39:00,
2013-04-01 09:40:00,69.2,67.1,30.04,South,183,9.0,11.0,93,0.00,,,0.00,Wunderground v.1.15,2013-04-01 13:40:00,
2013-04-01 09:44:00,69.4,67.0,30.04,SW,221,4.0,11.0,92,0.00,,,0.00,Wunderground v.1.15,2013-04-01 13:44:00,
2013-04-01 09:45:00,69.5,67.1,30.04,SSW,196,10.0,11.0,92,0.00,,,0.00,Wunderground v.1.15,2013-04-01 13:45:00,
2013-04-01 09:49:00,70.0,67.6,30.04,SSW,211,6.0,11.0,92,0.00,,,0.00,Wunderground v.1.15,2013-04-01 13:49:00,
2013-04-01 09:50:00,70.0,67.6,30.04,SSW,203,5.0,8.0,92,0.00,,,0.00,Wunderground v.1.15,2013-04-01 13:50:00,
2013-04-01 09:55:00,70.4,67.6,30.04,South,191,6.0,10.0,91,0.00,,,0.00,Wunderground v.1.15,2013-04-01 13:55:00,
2013-04-01 09:56:00,70.4,67.6,30.04,SSW,203,7.0,10.0,91,0.00,,,0.00,Wunderground v.1.15,2013-04-01 13:56:00,
2013-04-01 10:00:00,70.7,67.6,30.04,East,98,5.0,8.0,90,0.00,,,0.00,Wunderground v.1.15,2013-04-01 14:00:00,
2013-04-01 10:03:00,70.7,67.6,30.04,SSW,193,9.0,10.0,90,0.00,,,0.00,Wunderground v.1.15,2013-04-01 14:03:00,
2013-04-01 10:05:00,70.7,67.6,30.04,SW,232,4.0,10.0,90,0.00,,,0.00,Wunderground v.1.15,2013-04-01 14:05:00,
2013-04-01 10:06:00,70.7,67.6,30.04,SSW,203,10.0,11.0,90,0.00,,,0.00,Wunderground v.1.15,2013-04-01 14:06:00,
2013-04-01 10:08:00,70.7,67.6,30.04,South,179,6.0,11.0,90,0.00,,,0.00,Wunderground v.1.15,2013-04-01 14:08:00,
2013-04-01 10:10:00,70.9,68.1,30.04,SE,145,3.0,6.0,91,0.00,,,0.00,Wunderground v.1.15,2013-04-01 14:10:00,
2013-04-01 10:11:00,70.9,68.1,30.04,SSW,204,7.0,7.0,91,0.00,,,0.00,Wunderground v.1.15,2013-04-01 14:11:00,
2013-04-01 10:14:00,71.3,68.2,30.04,South,172,8.0,8.0,90,0.00,,,0.00,Wunderground v.1.15,2013-04-01 14:14:00,
2013-04-01 10:15:00,71.5,68.4,30.04,SSW,205,6.0,8.0,90,0.00,,,0.00,Wunderground v.1.15,2013-04-01 14:15:00,
2013-04-01 10:16:00,71.5,68.4,30.04,SW,225,6.0,8.0,90,0.00,,,0.00,Wunderground v.1.15,2013-04-01 14:16:00,
2013-04-01 10:19:00,71.6,68.2,30.03,South,173,4.0,9.0,89,0.00,,,0.00,Wunderground v.1.15,2013-04-01 14:19:00,
2013-04-01 10:21:00,71.8,68.4,30.03,SSW,210,8.0,8.0,89,0.00,,,0.00,Wunderground v.1.15,2013-04-01 14:21:00,
2013-04-01 10:24:00,71.9,68.2,30.03,SSW,203,7.0,9.0,88,0.00,,,0.00,Wunderground v.1.15,2013-04-01 14:24:00,
2013-04-01 10:26:00,72.0,68.2,30.03,South,186,6.0,9.0,88,0.00,,,0.00,Wunderground v.1.15,2013-04-01 14:26:00,
2013-04-01 10:27:00,72.0,68.2,30.03,SSW,203,9.0,9.0,88,0.00,,,0.00,Wunderground v.1.15,2013-04-01 14:27:00,
2013-04-01 10:29:00,72.1,68.3,30.03,SSW,205,8.0,11.0,88,0.00,,,0.00,Wunderground v.1.15,2013-04-01 14:29:00,
2013-04-01 10:31:00,72.0,68.2,30.03,SW,225,6.0,11.0,88,0.00,,,0.00,Wunderground v.1.15,2013-04-01 14:31:00,
2013-04-01 10:33:00,72.1,68.3,30.03,SSW,212,5.0,12.0,88,0.00,,,0.00,Wunderground v.1.15,2013-04-01 14:33:00,
2013-04-01 10:34:00,72.2,68.8,30.03,SSW,210,7.0,12.0,89,0.00,,,0.00,Wunderground v.1.15,2013-04-01 14:34:00,
2013-04-01 10:37:00,72.0,68.2,30.03,SSW,205,5.0,12.0,88,0.00,,,0.00,Wunderground v.1.15,2013-04-01 14:37:00,
2013-04-01 10:38:00,72.1,68.3,30.04,SSE,162,6.0,12.0,88,0.00,,,0.00,Wunderground v.1.15,2013-04-01 14:38:00,
2013-04-01 10:39:00,72.1,68.3,30.04,WSW,241,4.0,12.0,88,0.00,,,0.00,Wunderground v.1.15,2013-04-01 14:39:00,
2013-04-01 10:42:00,72.2,68.4,30.04,South,190,7.0,12.0,88,0.00,,,0.00,Wunderground v.1.15,2013-04-01 14:42:00,
2013-04-01 10:43:00,72.2,68.4,30.04,South,191,8.0,12.0,88,0.00,,,0.00,Wunderground v.1.15,2013-04-01 14:43:00,
2013-04-01 10:44:00,72.2,68.1,30.04,South,187,5.0,12.0,87,0.00,,,0.00,Wunderground v.1.15,2013-04-01 14:44:00,
2013-04-01 10:47:00,72.1,68.3,30.04,SSW,203,8.0,12.0,88,0.00,,,0.00,Wunderground v.1.15,2013-04-01 14:47:00,
2013-04-01 10:48:00,72.1,68.3,30.04,WSW,245,6.0,12.0,88,0.00,,,0.00,Wunderground v.1.15,2013-04-01 14:48:00,
2013-04-01 10:49:00,72.0,68.2,30.04,SSW,198,6.0,12.0,88,0.00,,,0.00,Wunderground v.1.15,2013-04-01 14:49:00,
2013-04-01 10:52:00,72.0,68.2,30.04,SW,233,7.0,11.0,88,0.00,,,0.00,Wunderground v.1.15,2013-04-01 14:52:00,
2013-04-01 10:54:00,72.0,68.2,30.04,SSW,197,6.0,11.0,88,0.00,,,0.00,Wunderground v.1.15,2013-04-01 14:54:00,
2013-04-01 10:57:00,72.3,68.5,30.04,SW,229,9.0,12.0,88,0.00,,,0.00,Wunderground v.1.15,2013-04-01 14:57:00,
2013-04-01 10:58:00,72.3,68.5,30.04,SW,219,3.0,12.0,88,0.00,,,0.00,Wunderground v.1.15,2013-04-01 14:58:00,
2013-04-01 10:59:00,72.4,68.6,30.04,South,180,10.0,12.0,88,0.00,,,0.00,Wunderground v.1.15,2013-04-01 14:59:00,
2013-04-01 11:03:00,72.6,68.5,30.04,South,172,3.0,11.0,87,0.00,,,0.00,Wunderground v.1.15,2013-04-01 15:03:00,
2013-04-01 11:04:00,72.9,69.1,30.04,West,272,3.0,11.0,88,0.00,,,0.00,Wunderground v.1.15,2013-04-01 15:04:00,
2013-04-01 11:08:00,73.3,68.9,30.04,West,266,5.0,11.0,86,0.00,,,0.00,Wunderground v.1.15,2013-04-01 15:08:00,
2013-04-01 11:09:00,73.4,68.6,30.04,WSW,243,6.0,11.0,85,0.00,,,0.00,Wunderground v.1.15,2013-04-01 15:09:00,
2013-04-01 11:10:00,73.4,68.6,30.04,SW,223,5.0,6.0,85,0.00,,,0.00,Wunderground v.1.15,2013-04-01 15:10:00,
2013-04-01 11:13:00,73.4,68.3,30.04,South,191,7.0,11.0,84,0.00,,,0.00,Wunderground v.1.15,2013-04-01 15:13:00,
2013-04-01 11:14:00,73.4,69.0,30.05,SW,223,6.0,11.0,86,0.00,,,0.00,Wunderground v.1.15,2013-04-01 15:14:00,
2013-04-01 11:15:00,73.4,68.6,30.04,SW,218,9.0,13.0,85,0.00,,,0.00,Wunderground v.1.15,2013-04-01 15:15:00,
2013-04-01 11:18:00,73.3,68.5,30.04,SW,222,9.0,13.0,85,0.00,,,0.00,Wunderground v.1.15,2013-04-01 15:18:00,
2013-04-01 11:19:00,73.3,68.5,30.04,SW,217,8.0,13.0,85,0.00,,,0.00,Wunderground v.1.15,2013-04-01 15:19:00,
2013-04-01 11:20:00,73.2,68.8,30.04,SSW,207,5.0,11.0,86,0.00,,,0.00,Wunderground v.1.15,2013-04-01 15:20:00,
2013-04-01 11:24:00,72.9,68.5,30.04,SSW,200,6.0,11.0,86,0.00,,,0.00,Wunderground v.1.15,2013-04-01 15:24:00,
2013-04-01 11:25:00,73.0,68.9,30.04,South,183,10.0,12.0,87,0.00,,,0.00,Wunderground v.1.15,2013-04-01 15:25:00,
2013-04-01 11:29:00,73.3,69.2,30.05,SSW,210,5.0,12.0,87,0.00,,,0.00,Wunderground v.1.15,2013-04-01 15:29:00,
2013-04-01 11:30:00,73.2,68.8,30.04,SW,217,8.0,11.0,86,0.00,,,0.00,Wunderground v.1.15,2013-04-01 15:30:00,
2013-04-01 11:34:00,73.1,69.0,30.04,SW,214,5.0,11.0,87,0.00,,,0.00,Wunderground v.1.15,2013-04-01 15:34:00,
2013-04-01 11:35:00,73.1,68.7,30.04,South,172,6.0,11.0,86,0.00,,,0.00,Wunderground v.1.15,2013-04-01 15:35:00,
2013-04-01 11:39:00,73.1,69.0,30.05,SW,214,8.0,11.0,87,0.00,,,0.00,Wunderground v.1.15,2013-04-01 15:39:00,
2013-04-01 11:40:00,73.1,69.0,30.04,SSE,162,5.0,6.0,87,0.00,,,0.00,Wunderground v.1.15,2013-04-01 15:40:00,
2013-04-01 11:44:00,73.4,69.0,30.04,SW,226,5.0,9.0,86,0.00,,,0.00,Wunderground v.1.15,2013-04-01 15:44:00,
2013-04-01 11:45:00,73.4,69.0,30.04,SW,224,7.0,9.0,86,0.00,,,0.00,Wunderground v.1.15,2013-04-01 15:45:00,
2013-04-01 11:49:00,73.7,68.9,30.04,SSW,208,5.0,10.0,85,0.00,,,0.00,Wunderground v.1.15,2013-04-01 15:49:00,
2013-04-01 11:50:00,73.7,68.9,30.04,SW,227,6.0,6.0,85,0.00,,,0.00,Wunderground v.1.15,2013-04-01 15:50:00,
2013-04-01 11:51:00,73.8,69.0,30.04,SSW,193,3.0,9.0,85,0.00,,,0.00,Wunderground v.1.15,2013-04-01 15:51:00,
2013-04-01 11:54:00,74.4,69.6,30.04,SSW,208,5.0,9.0,85,0.00,,,0.00,Wunderground v.1.15,2013-04-01 15:54:00,
2013-04-01 11:55:00,74.6,69.8,30.04,SSE,152,7.0,9.0,85,0.00,,,0.00,Wunderground v.1.15,2013-04-01 15:55:00,
2013-04-01 11:57:00,74.7,68.8,30.04,SSW,210,9.0,11.0,82,0.00,,,0.00,Wunderground v.1.15,2013-04-01 15:57:00,
2013-04-01 11:59:00,74.4,68.9,30.04,SSE,150,5.0,12.0,83,0.00,,,0.00,Wunderground v.1.15,2013-04-01 15:59:00,
2013-04-01 12:00:00,74.4,69.2,30.04,SSE,153,3.0,6.0,84,0.00,,,0.00,Wunderground v.1.15,2013-04-01 16:00:00,
2013-04-01 12:02:00,74.5,69.0,30.04,SE,133,7.0,11.0,83,0.00,,,0.00,Wunderground v.1.15,2013-04-01 16:02:00,
2013-04-01 12:04:00,74.4,69.2,30.05,WSW,246,7.0,11.0,84,0.00,,,0.00,Wunderground v.1.15,2013-04-01 16:04:00,
2013-04-01 12:05:00,74.4,69.6,30.05,SSW,193,4.0,11.0,85,0.00,,,0.00,Wunderground v.1.15,2013-04-01 16:05:00,
2013-04-01 12:07:00,74.5,69.3,30.05,WSW,242,7.0,11.0,84,0.00,,,0.00,Wunderground v.1.15,2013-04-01 16:07:00,
2013-04-01 12:09:00,74.4,69.2,30.05,South,191,8.0,17.0,84,0.00,,,0.00,Wunderground v.1.15,2013-04-01 16:09:00,
2013-04-01 12:10:00,74.4,69.2,30.05,SSW,195,11.0,11.0,84,0.00,,,0.00,Wunderground v.1.15,2013-04-01 16:10:00,
2013-04-01 12:12:00,74.3,69.1,30.05,SSW,192,6.0,11.0,84,0.00,,,0.00,Wunderground v.1.15,2013-04-01 16:12:00,
2013-04-01 12:14:00,74.2,69.1,30.05,SW,226,4.0,11.0,84,0.00,,,0.00,Wunderground v.1.15,2013-04-01 16:14:00,
2013-04-01 12:15:00,74.2,69.1,30.05,WSW,248,2.0,11.0,84,0.00,,,0.00,Wunderground v.1.15,2013-04-01 16:15:00,
2013-04-01 12:17:00,74.2,69.4,30.05,SSW,204,8.0,11.0,85,0.00,,,0.00,Wunderground v.1.15,2013-04-01 16:17:00,
2013-04-01 12:19:00,73.8,68.7,30.05,South,189,10.0,13.0,84,0.00,,,0.00,Wunderground v.1.15,2013-04-01 16:19:00,
2013-04-01 12:20:00,73.7,68.6,30.04,SW,221,6.0,10.0,84,0.00,,,0.00,Wunderground v.1.15,2013-04-01 16:20:00,
2013-04-01 12:22:00,73.7,68.9,30.04,SW,228,6.0,10.0,85,0.00,,,0.00,Wunderground v.1.15,2013-04-01 16:22:00,
2013-04-01 12:24:00,73.8,69.0,30.04,South,184,8.0,11.0,85,0.00,,,0.00,Wunderground v.1.15,2013-04-01 16:24:00,
2013-04-01 12:25:00,73.8,69.0,30.04,SW,215,11.0,11.0,85,0.00,,,0.00,Wunderground v.1.15,2013-04-01 16:25:00,
2013-04-01 12:27:00,73.9,69.1,30.04,SSW,200,6.0,12.0,85,0.00,,,0.00,Wunderground v.1.15,2013-04-01 16:27:00,
2013-04-01 12:29:00,73.9,69.1,30.04,SW,219,5.0,12.0,85,0.00,,,0.00,Wunderground v.1.15,2013-04-01 16:29:00,
2013-04-01 12:30:00,74.0,69.2,30.04,SSW,203,11.0,12.0,85,0.00,,,0.00,Wunderground v.1.15,2013-04-01 16:30:00,
2013-04-01 12:31:00,74.0,69.2,30.04,SSW,211,7.0,12.0,85,0.00,,,0.00,Wunderground v.1.15,2013-04-01 16:31:00,
2013-04-01 12:32:00,73.9,69.1,30.04,South,176,6.0,12.0,85,0.00,,,0.00,Wunderground v.1.15,2013-04-01 16:32:00,
2013-04-01 12:34:00,74.2,69.7,30.04,WSW,254,7.0,12.0,86,0.00,,,0.00,Wunderground v.1.15,2013-04-01 16:34:00,
2013-04-01 12:36:00,74.3,69.8,30.04,WSW,257,6.0,12.0,86,0.00,,,0.00,Wunderground v.1.15,2013-04-01 16:36:00,
2013-04-01 12:37:00,74.5,70.0,30.04,SSW,212,8.0,12.0,86,0.00,,,0.00,Wunderground v.1.15,2013-04-01 16:37:00,
2013-04-01 12:38:00,74.7,69.9,30.04,South,190,9.0,12.0,85,0.00,,,0.00,Wunderground v.1.15,2013-04-01 16:38:00,
2013-04-01 12:40:00,74.6,69.4,30.04,WSW,247,7.0,9.0,84,0.00,,,0.00,Wunderground v.1.15,2013-04-01 16:40:00,
2013-04-01 12:42:00,74.5,69.7,30.04,WSW,248,12.0,12.0,85,0.00,,,0.00,Wunderground v.1.15,2013-04-01 16:42:00,
2013-04-01 12:43:00,74.5,69.7,30.04,SSW,205,6.0,12.0,85,0.00,,,0.00,Wunderground v.1.15,2013-04-01 16:43:00,
2013-04-01 12:45:00,74.8,70.0,30.04,SW,217,7.0,12.0,85,0.00,,,0.00,Wunderground v.1.15,2013-04-01 16:45:00,
2013-04-01 12:47:00,74.9,69.4,30.04,SSW,200,9.0,12.0,83,0.00,,,0.00,Wunderground v.1.15,2013-04-01 16:47:00,
2013-04-01 12:48:00,74.9,69.7,30.04,WSW,252,8.0,12.0,84,0.00,,,0.00,Wunderground v.1.15,2013-04-01 16:48:00,
2013-04-01 12:50:00,74.7,69.5,30.04,SW,228,8.0,10.0,84,0.00,,,0.00,Wunderground v.1.15,2013-04-01 16:50:00,
2013-04-01 12:53:00,74.6,69.4,30.04,SSW,193,5.0,10.0,84,0.00,,,0.00,Wunderground v.1.15,2013-04-01 16:53:00,
2013-04-01 12:55:00,74.7,70.2,30.04,SW,215,3.0,11.0,86,0.00,,,0.00,Wunderground v.1.15,2013-04-01 16:55:00,
2013-04-01 12:58:00,74.8,69.6,30.04,SW,235,7.0,11.0,84,0.00,,,0.00,Wunderground v.1.15,2013-04-01 16:58:00,
2013-04-01 13:01:00,74.8,69.6,30.04,WSW,239,5.0,10.0,84,0.00,,,0.00,Wunderground v.1.15,2013-04-01 17:01:00,
2013-04-01 13:03:00,75.0,70.2,30.04,SSW,199,7.0,10.0,85,0.00,,,0.00,Wunderground v.1.15,2013-04-01 17:03:00,
2013-04-01 13:04:00,75.0,69.8,30.04,SW,222,11.0,11.0,84,0.00,,,0.00,Wunderground v.1.15,2013-04-01 17:04:00,
2013-04-01 13:06:00,75.0,70.2,30.04,SW,224,6.0,13.0,85,0.00,,,0.00,Wunderground v.1.15,2013-04-01 17:06:00,
2013-04-01 13:09:00,75.4,70.6,30.04,SSW,207,6.0,13.0,85,0.00,,,0.00,Wunderground v.1.15,2013-04-01 17:09:00,
2013-04-01 13:13:00,75.1,69.9,30.04,SW,217,8.0,13.0,84,0.00,,,0.00,Wunderground v.1.15,2013-04-01 17:13:00,
2013-04-01 13:14:00,75.0,69.8,30.04,South,186,6.0,13.0,84,0.00,,,0.00,Wunderground v.1.15,2013-04-01 17:14:00,
2013-04-01 13:18:00,75.4,70.2,30.03,WSW,247,7.0,13.0,84,0.00,,,0.00,Wunderground v.1.15,2013-04-01 17:18:00,
2013-04-01 13:19:00,75.4,70.2,30.03,SSW,201,11.0,13.0,84,0.00,,,0.00,Wunderground v.1.15,2013-04-01 17:19:00,
2013-04-01 13:20:00,75.4,70.2,30.04,SSE,166,8.0,10.0,84,0.00,,,0.00,Wunderground v.1.15,2013-04-01 17:20:00,
2013-04-01 13:23:00,75.0,70.2,30.03,SSW,205,7.0,13.0,85,0.00,,,0.00,Wunderground v.1.15,2013-04-01 17:23:00,
2013-04-01 13:24:00,75.0,70.2,30.03,SSW,205,4.0,13.0,85,0.00,,,0.00,Wunderground v.1.15,2013-04-01 17:24:00,
2013-04-01 13:25:00,75.1,70.3,30.03,SSW,205,4.0,13.0,85,0.00,,,0.00,Wunderground v.1.15,2013-04-01 17:25:00,
2013-04-01 13:28:00,75.3,70.1,30.03,SSW,195,11.0,14.0,84,0.00,,,0.00,Wunderground v.1.15,2013-04-01 17:28:00,
2013-04-01 13:29:00,75.3,70.1,30.04,SW,222,5.0,14.0,84,0.00,,,0.00,Wunderground v.1.15,2013-04-01 17:29:00,
2013-04-01 13:30:00,75.3,70.5,30.04,WSW,239,4.0,8.0,85,0.00,,,0.00,Wunderground v.1.15,2013-04-01 17:30:00,
2013-04-01 13:33:00,75.4,70.2,30.03,SSW,203,5.0,11.0,84,0.00,,,0.00,Wunderground v.1.15,2013-04-01 17:33:00,
2013-04-01 13:34:00,75.4,70.6,30.03,SW,222,6.0,11.0,85,0.00,,,0.00,Wunderground v.1.15,2013-04-01 17:34:00,
2013-04-01 13:35:00,75.5,70.7,30.03,WSW,241,5.0,11.0,85,0.00,,,0.00,Wunderground v.1.15,2013-04-01 17:35:00,
2013-04-01 13:39:00,75.6,70.4,30.03,WSW,248,7.0,13.0,84,0.00,,,0.00,Wunderground v.1.15,2013-04-01 17:39:00,
2013-04-01 13:40:00,75.6,70.4,30.03,SW,222,11.0,12.0,84,0.00,,,0.00,Wunderground v.1.15,2013-04-01 17:40:00,
2013-04-01 13:44:00,75.3,70.5,30.03,SSW,193,10.0,14.0,85,0.00,,,0.00,Wunderground v.1.15,2013-04-01 17:44:00,
2013-04-01 13:45:00,75.3,70.5,30.03,SSE,158,7.0,14.0,85,0.00,,,0.00,Wunderground v.1.15,2013-04-01 17:45:00,
2013-04-01 13:49:00,75.2,70.4,30.03,West,267,4.0,15.0,85,0.00,,,0.00,Wunderground v.1.15,2013-04-01 17:49:00,
2013-04-01 13:50:00,75.3,70.5,30.03,SSE,159,4.0,8.0,85,0.00,,,0.00,Wunderground v.1.15,2013-04-01 17:50:00,
2013-04-01 13:54:00,75.1,70.3,30.03,WSW,239,9.0,14.0,85,0.00,,,0.00,Wunderground v.1.15,2013-04-01 17:54:00,
2013-04-01 13:55:00,75.1,70.3,30.03,SSW,212,6.0,14.0,85,0.00,,,0.00,Wunderground v.1.15,2013-04-01 17:55:00,
2013-04-01 13:59:00,75.3,70.8,30.02,South,172,8.0,14.0,86,0.00,,,0.00,Wunderground v.1.15,2013-04-01 17:59:00,
2013-04-01 14:00:00,75.4,70.6,30.02,SW,219,9.0,12.0,85,0.00,,,0.00,Wunderground v.1.15,2013-04-01 18:00:00,
2013-04-01 14:04:00,75.1,70.3,30.03,SSW,210,6.0,12.0,85,0.00,,,0.00,Wunderground v.1.15,2013-04-01 18:04:00,
2013-04-01 14:05:00,75.1,70.3,30.02,SW,221,10.0,12.0,85,0.00,,,0.00,Wunderground v.1.15,2013-04-01 18:05:00,
2013-04-01 14:06:00,75.2,70.4,30.03,SSW,198,11.0,12.0,85,0.00,,,0.00,Wunderground v.1.15,2013-04-01 18:06:00,
2013-04-01 14:09:00,74.9,70.1,30.02,South,191,10.0,14.0,85,0.00,,,0.00,Wunderground v.1.15,2013-04-01 18:09:00,
2013-04-01 14:10:00,74.9,70.1,30.02,SSW,204,7.0,8.0,85,0.00,,,0.00,Wunderground v.1.15,2013-04-01 18:10:00,
2013-04-01 14:11:00,75.0,70.5,30.02,SSW,195,6.0,8.0,86,0.00,,,0.00,Wunderground v.1.15,2013-04-01 18:11:00,
2013-04-01 14:14:00,75.4,70.6,30.02,SW,227,8.0,10.0,85,0.00,,,0.00,Wunderground v.1.15,2013-04-01 18:14:00,
2013-04-01 14:15:00,75.5,70.7,30.02,SSW,193,6.0,10.0,85,0.00,,,0.00,Wunderground v.1.15,2013-04-01 18:15:00,
2013-04-01 14:16:00,75.7,70.9,30.02,WSW,246,2.0,10.0,85,0.00,,,0.00,Wunderground v.1.15,2013-04-01 18:16:00,
2013-04-01 14:19:00,75.9,70.7,30.02,WSW,240,8.0,14.0,84,0.00,,,0.00,Wunderground v.1.15,2013-04-01 18:19:00,
2013-04-01 14:20:00,75.8,70.6,30.02,WSW,249,9.0,9.0,84,0.00,,,0.00,Wunderground v.1.15,2013-04-01 18:20:00,
2013-04-01 14:22:00,75.8,70.6,30.02,SSW,203,9.0,11.0,84,0.00,,,0.00,Wunderground v.1.15,2013-04-01 18:22:00,
2013-04-01 14:24:00,75.3,70.1,30.02,WSW,245,8.0,13.0,84,0.00,,,0.00,Wunderground v.1.15,2013-04-01 18:24:00,
2013-04-01 14:25:00,75.3,70.1,30.02,WSW,240,6.0,13.0,84,0.00,,,0.00,Wunderground v.1.15,2013-04-01 18:25:00,
2013-04-01 14:27:00,75.4,70.6,30.02,SSW,207,11.0,14.0,85,0.00,,,0.00,Wunderground v.1.15,2013-04-01 18:27:00,
2013-04-01 14:29:00,75.3,70.1,30.02,South,191,13.0,14.0,84,0.00,,,0.00,Wunderground v.1.15,2013-04-01 18:29:00,
2013-04-01 14:30:00,75.1,69.9,30.02,SSW,205,11.0,14.0,84,0.00,,,0.00,Wunderground v.1.15,2013-04-01 18:30:00,
2013-04-01 14:31:00,74.9,69.7,30.02,South,186,10.0,14.0,84,0.00,,,0.00,Wunderground v.1.15,2013-04-01 18:31:00,
2013-04-01 14:32:00,74.8,70.3,30.01,SSE,153,8.0,14.0,86,0.00,,,0.00,Wunderground v.1.15,2013-04-01 18:32:00,
2013-04-01 14:34:00,74.8,70.0,30.01,SSW,197,8.0,14.0,85,0.00,,,0.00,Wunderground v.1.15,2013-04-01 18:34:00,
2013-04-01 14:35:00,74.7,69.9,30.01,SSW,209,5.0,14.0,85,0.00,,,0.00,Wunderground v.1.15,2013-04-01 18:35:00,
2013-04-01 14:36:00,74.7,69.9,30.01,SW,219,9.0,14.0,85,0.00,,,0.00,Wunderground v.1.15,2013-04-01 18:36:00,
2013-04-01 14:37:00,74.8,70.3,30.02,SSW,200,8.0,14.0,86,0.00,,,0.00,Wunderground v.1.15,2013-04-01 18:37:00,
2013-04-01 14:39:00,74.9,70.1,30.01,SW,221,8.0,9.0,85,0.00,,,0.00,Wunderground v.1.15,2013-04-01 18:39:00,
2013-04-01 14:40:00,74.9,70.1,30.01,SW,219,7.0,10.0,85,0.00,,,0.00,Wunderground v.1.15,2013-04-01 18:40:00,
2013-04-01 14:41:00,74.9,70.1,30.01,SSW,200,7.0,10.0,85,0.00,,,0.00,Wunderground v.1.15,2013-04-01 18:41:00,
2013-04-01 14:42:00,74.8,70.3,30.01,SW,218,10.0,11.0,86,0.00,,,0.00,Wunderground v.1.15,2013-04-01 18:42:00,
2013-04-01 14:45:00,75.0,70.5,30.01,WSW,238,10.0,11.0,86,0.00,,,0.00,Wunderground v.1.15,2013-04-01 18:45:00,
2013-04-01 14:47:00,75.1,70.6,30.01,SW,221,4.0,11.0,86,0.00,,,0.00,Wunderground v.1.15,2013-04-01 18:47:00,
2013-04-01 14:48:00,75.1,70.3,30.01,South,187,9.0,12.0,85,0.00,,,0.00,Wunderground v.1.15,2013-04-01 18:48:00,
2013-04-01 14:50:00,75.1,70.3,30.01,SSW,203,10.0,10.0,85,0.00,,,0.00,Wunderground v.1.15,2013-04-01 18:50:00,
2013-04-01 14:52:00,75.1,70.6,30.01,SW,226,7.0,12.0,86,0.00,,,0.00,Wunderground v.1.15,2013-04-01 18:52:00,
2013-04-01 14:53:00,75.1,70.6,30.01,West,271,5.0,12.0,86,0.00,,,0.00,Wunderground v.1.15,2013-04-01 18:53:00,
2013-04-01 14:55:00,75.2,70.7,30.01,SW,219,10.0,12.0,86,0.00,,,0.00,Wunderground v.1.15,2013-04-01 18:55:00,
2013-04-01 14:57:00,75.1,70.3,30.01,South,191,6.0,12.0,85,0.00,,,0.00,Wunderground v.1.15,2013-04-01 18:57:00,
2013-04-01 14:58:00,75.1,70.3,30.01,SSW,211,10.0,13.0,85,0.00,,,0.00,Wunderground v.1.15,2013-04-01 18:58:00,
2013-04-01 15:00:00,75.0,70.5,30.01,SSW,205,2.0,10.0,86,0.00,,,0.00,Wunderground v.1.15,2013-04-01 19:00:00,
2013-04-01 15:01:00,75.1,70.6,30.00,SSE,160,9.0,10.0,86,0.00,,,0.00,Wunderground v.1.15,2013-04-01 19:01:00,
2013-04-01 15:03:00,75.3,70.8,30.00,SSW,210,8.0,12.0,86,0.00,,,0.00,Wunderground v.1.15,2013-04-01 19:03:00,
2013-04-01 15:05:00,75.3,70.8,30.00,WSW,242,7.0,12.0,86,0.00,,,0.00,Wunderground v.1.15,2013-04-01 19:05:00,
2013-04-01 15:06:00,75.5,71.0,30.00,WSW,239,9.0,12.0,86,0.00,,,0.00,Wunderground v.1.15,2013-04-01 19:06:00,
2013-04-01 15:08:00,75.5,70.3,30.00,SW,227,8.0,12.0,84,0.00,,,0.00,Wunderground v.1.15,2013-04-01 19:08:00,
2013-04-01 15:10:00,75.6,70.4,30.00,WSW,249,10.0,11.0,84,0.00,,,0.00,Wunderground v.1.15,2013-04-01 19:10:00,
2013-04-01 15:12:00,75.6,70.8,30.00,South,183,4.0,11.0,85,0.00,,,0.00,Wunderground v.1.15,2013-04-01 19:12:00,
2013-04-01 15:13:00,75.7,70.5,30.00,SSW,205,9.0,11.0,84,0.00,,,0.00,Wunderground v.1.15,2013-04-01 19:13:00,
2013-04-01 15:15:00,75.5,70.7,30.00,SW,228,6.0,11.0,85,0.00,,,0.00,Wunderground v.1.15,2013-04-01 19:15:00,
2013-04-01 15:17:00,75.4,70.2,30.00,SSW,207,5.0,12.0,84,0.00,,,0.00,Wunderground v.1.15,2013-04-01 19:17:00,
2013-04-01 15:18:00,75.3,70.5,30.00,WSW,243,10.0,12.0,85,0.00,,,0.00,Wunderground v.1.15,2013-04-01 19:18:00,
2013-04-01 15:19:00,75.3,70.5,30.00,SW,221,7.0,12.0,85,0.00,,,0.00,Wunderground v.1.15,2013-04-01 19:19:00,
2013-04-01 15:20:00,75.1,69.9,30.00,WSW,240,9.0,12.0,84,0.00,,,0.00,Wunderground v.1.15,2013-04-01 19:20:00,
2013-04-01 15:22:00,75.2,70.4,30.00,SW,235,7.0,12.0,85,0.00,,,0.00,Wunderground v.1.15,2013-04-01 19:22:00,
2013-04-01 15:23:00,75.2,70.4,30.00,WSW,243,7.0,12.0,85,0.00,,,0.00,Wunderground v.1.15,2013-04-01 19:23:00,
2013-04-01 15:24:00,75.1,70.3,30.00,SW,236,4.0,12.0,85,0.00,,,0.00,Wunderground v.1.15,2013-04-01 19:24:00,
2013-04-01 15:25:00,75.2,70.4,30.00,SSW,203,9.0,12.0,85,0.00,,,0.00,Wunderground v.1.15,2013-04-01 19:25:00,
2013-04-01 15:28:00,75.3,70.5,30.00,SW,229,6.0,14.0,85,0.00,,,0.00,Wunderground v.1.15,2013-04-01 19:28:00,
2013-04-01 15:29:00,75.3,70.5,29.99,SW,236,5.0,14.0,85,0.00,,,0.00,Wunderground v.1.15,2013-04-01 19:29:00,
2013-04-01 15:31:00,75.3,70.1,30.00,WSW,239,10.0,12.0,84,0.00,,,0.00,Wunderground v.1.15,2013-04-01 19:31:00,
2013-04-01 15:33:00,75.2,70.4,29.99,SSW,205,5.0,13.0,85,0.00,,,0.00,Wunderground v.1.15,2013-04-01 19:33:00,
2013-04-01 15:34:00,75.1,70.3,29.99,SSW,200,11.0,13.0,85,0.00,,,0.00,Wunderground v.1.15,2013-04-01 19:34:00,
2013-04-01 15:36:00,75.0,70.2,29.99,SSW,203,8.0,13.0,85,0.00,,,0.00,Wunderground v.1.15,2013-04-01 19:36:00,
2013-04-01 15:38:00,75.0,70.5,29.99,SSW,201,10.0,13.0,86,0.00,,,0.00,Wunderground v.1.15,2013-04-01 19:38:00,
2013-04-01 15:39:00,75.0,70.5,29.99,SSW,203,9.0,13.0,86,0.00,,,0.00,Wunderground v.1.15,2013-04-01 19:39:00,
2013-04-01 15:41:00,75.1,70.6,29.99,WSW,250,2.0,8.0,86,0.00,,,0.00,Wunderground v.1.15,2013-04-01 19:41:00,
2013-04-01 15:44:00,75.7,70.9,29.99,SSW,211,10.0,12.0,85,0.00,,,0.00,Wunderground v.1.15,2013-04-01 19:44:00,
2013-04-01 15:46:00,75.6,70.4,29.99,SW,222,10.0,12.0,84,0.00,,,0.00,Wunderground v.1.15,2013-04-01 19:46:00,
2013-04-01 15:49:00,75.2,70.0,29.99,SSW,199,13.0,13.0,84,0.00,,,0.00,Wunderground v.1.15,2013-04-01 19:49:00,
2013-04-01 15:52:00,74.8,70.0,29.99,South,174,8.0,12.0,85,0.00,,,0.00,Wunderground v.1.15,2013-04-01 19:52:00,
2013-04-01 15:54:00,74.9,70.1,29.99,SW,219,4.0,12.0,85,0.00,,,0.00,Wunderground v.1.15,2013-04-01 19:54:00,
2013-04-01 15:58:00,74.8,69.6,29.99,SW,235,8.0,12.0,84,0.00,,,0.00,Wunderground v.1.15,2013-04-01 19:58:00,
2013-04-01 15:59:00,74.7,69.9,29.99,SSW,200,5.0,12.0,85,0.00,,,0.00,Wunderground v.1.15,2013-04-01 19:59:00,
2013-04-01 16:00:00,74.7,70.2,29.99,South,186,9.0,9.0,86,0.00,,,0.00,Wunderground v.1.15,2013-04-01 20:00:00,
2013-04-01 16:03:00,74.5,70.0,29.99,SSW,193,7.0,14.0,86,0.00,,,0.00,Wunderground v.1.15,2013-04-01 20:03:00,
2013-04-01 16:04:00,74.5,70.0,29.99,South,188,4.0,14.0,86,0.00,,,0.00,Wunderground v.1.15,2013-04-01 20:04:00,
2013-04-01 16:05:00,74.6,70.1,29.99,WSW,256,5.0,14.0,86,0.00,,,0.00,Wunderground v.1.15,2013-04-01 20:05:00,
2013-04-01 16:08:00,74.5,70.0,29.99,SSW,212,5.0,14.0,86,0.00,,,0.00,Wunderground v.1.15,2013-04-01 20:08:00,
2013-04-01 16:09:00,74.5,70.4,29.99,SW,218,2.0,14.0,87,0.00,,,0.00,Wunderground v.1.15,2013-04-01 20:09:00,
2013-04-01 16:10:00,74.5,70.0,29.99,SSW,211,8.0,9.0,86,0.00,,,0.00,Wunderground v.1.15,2013-04-01 20:10:00,
2013-04-01 16:13:00,74.2,69.7,29.99,SSW,208,9.0,13.0,86,0.00,,,0.00,Wunderground v.1.15,2013-04-01 20:13:00,
2013-04-01 16:14:00,74.2,69.7,29.99,SW,227,9.0,13.0,86,0.00,,,0.00,Wunderground v.1.15,2013-04-01 20:14:00,
2013-04-01 16:15:00,74.2,70.1,29.99,SSW,205,7.0,13.0,87,0.00,,,0.00,Wunderground v.1.15,2013-04-01 20:15:00,
2013-04-01 16:16:00,74.2,70.1,29.99,WSW,249,10.0,13.0,87,0.00,,,0.00,Wunderground v.1.15,2013-04-01 20:16:00,
2013-04-01 16:18:00,74.3,69.8,29.99,SW,223,8.0,13.0,86,0.00,,,0.00,Wunderground v.1.15,2013-04-01 20:18:00,
2013-04-01 16:19:00,74.3,69.8,29.99,SSW,212,8.0,13.0,86,0.00,,,0.00,Wunderground v.1.15,2013-04-01 20:19:00,
2013-04-01 16:20:00,74.2,69.7,29.99,SW,217,6.0,10.0,86,0.00,,,0.00,Wunderground v.1.15,2013-04-01 20:20:00,
2013-04-01 16:21:00,74.2,69.7,29.99,SSW,209,10.0,10.0,86,0.00,,,0.00,Wunderground v.1.15,2013-04-01 20:21:00,
2013-04-01 16:24:00,74.2,70.1,29.99,SW,225,11.0,13.0,87,0.00,,,0.00,Wunderground v.1.15,2013-04-01 20:24:00,
2013-04-01 16:25:00,74.2,69.7,29.99,West,264,5.0,13.0,86,0.00,,,0.00,Wunderground v.1.15,2013-04-01 20:25:00,
2013-04-01 16:26:00,74.2,70.1,29.99,SW,232,5.0,13.0,87,0.00,,,0.00,Wunderground v.1.15,2013-04-01 20:26:00,
2013-04-01 16:29:00,74.3,69.8,29.99,WSW,257,4.0,13.0,86,0.00,,,0.00,Wunderground v.1.15,2013-04-01 20:29:00,
2013-04-01 16:30:00,74.4,69.9,29.99,SW,220,6.0,8.0,86,0.00,,,0.00,Wunderground v.1.15,2013-04-01 20:30:00,
2013-04-01 16:32:00,74.4,69.9,29.99,WSW,251,10.0,10.0,86,0.00,,,0.00,Wunderground v.1.15,2013-04-01 20:32:00,
2013-04-01 16:34:00,74.4,69.9,29.99,WSW,239,9.0,12.0,86,0.00,,,0.00,Wunderground v.1.15,2013-04-01 20:34:00,
2013-04-01 16:36:00,74.4,70.3,29.99,SSW,197,4.0,12.0,87,0.00,,,0.00,Wunderground v.1.15,2013-04-01 20:36:00,
2013-04-01 16:37:00,74.5,70.0,29.99,SW,233,8.0,12.0,86,0.00,,,0.00,Wunderground v.1.15,2013-04-01 20:37:00,
2013-04-01 16:39:00,74.3,69.5,29.99,WSW,243,8.0,14.0,85,0.00,,,0.00,Wunderground v.1.15,2013-04-01 20:39:00,
2013-04-01 16:40:00,74.3,69.8,29.99,SW,222,3.0,7.0,86,0.00,,,0.00,Wunderground v.1.15,2013-04-01 20:40:00,
2013-04-01 16:41:00,74.4,70.3,29.99,WSW,242,5.0,7.0,87,0.00,,,0.00,Wunderground v.1.15,2013-04-01 20:41:00,
2013-04-01 16:42:00,74.6,70.1,29.99,SSW,211,9.0,9.0,86,0.00,,,0.00,Wunderground v.1.15,2013-04-01 20:42:00,
2013-04-01 16:44:00,74.8,70.3,29.99,SW,225,4.0,11.0,86,0.00,,,0.00,Wunderground v.1.15,2013-04-01 20:44:00,
2013-04-01 16:45:00,74.9,70.4,29.99,SW,232,3.0,11.0,86,0.00,,,0.00,Wunderground v.1.15,2013-04-01 20:45:00,
2013-04-01 16:46:00,74.9,70.1,29.99,WSW,254,5.0,11.0,85,0.00,,,0.00,Wunderground v.1.15,2013-04-01 20:46:00,
2013-04-01 16:47:00,75.0,70.2,29.99,SSW,210,8.0,11.0,85,0.00,,,0.00,Wunderground v.1.15,2013-04-01 20:47:00,
2013-04-01 16:49:00,75.0,69.8,29.99,SW,225,6.0,12.0,84,0.00,,,0.00,Wunderground v.1.15,2013-04-01 20:49:00,
2013-04-01 16:50:00,74.8,70.0,29.99,WSW,255,5.0,7.0,85,0.00,,,0.00,Wunderground v.1.15,2013-04-01 20:50:00,
2013-04-01 16:52:00,74.8,70.0,29.99,SW,232,8.0,10.0,85,0.00,,,0.00,Wunderground v.1.15,2013-04-01 20:52:00,
2013-04-01 16:53:00,74.8,70.0,29.99,SW,217,11.0,11.0,85,0.00,,,0.00,Wunderground v.1.15,2013-04-01 20:53:00,
2013-04-01 16:54:00,74.8,70.0,29.99,South,190,7.0,11.0,85,0.00,,,0.00,Wunderground v.1.15,2013-04-01 20:54:00,
2013-04-01 16:55:00,74.8,70.0,29.99,SSW,203,7.0,11.0,85,0.00,,,0.00,Wunderground v.1.15,2013-04-01 20:55:00,
2013-04-01 16:57:00,74.7,69.9,29.99,WSW,250,6.0,11.0,85,0.00,,,0.00,Wunderground v.1.15,2013-04-01 20:57:00,
2013-04-01 16:58:00,74.7,69.9,29.98,SSW,212,6.0,11.0,85,0.00,,,0.00,Wunderground v.1.15,2013-04-01 20:58:00,
2013-04-01 16:59:00,74.5,69.7,29.99,SSW,207,5.0,11.0,85,0.00,,,0.00,Wunderground v.1.15,2013-04-01 20:59:00,
2013-04-01 17:00:00,74.5,70.0,29.98,SW,236,11.0,11.0,86,0.00,,,0.00,Wunderground v.1.15,2013-04-01 21:00:00,
2013-04-01 17:02:00,74.4,69.9,29.98,South,176,6.0,11.0,86,0.00,,,0.00,Wunderground v.1.15,2013-04-01 21:02:00,
2013-04-01 17:03:00,74.5,70.0,29.98,WSW,248,6.0,11.0,86,0.00,,,0.00,Wunderground v.1.15,2013-04-01 21:03:00,
2013-04-01 17:04:00,74.6,70.1,29.98,SW,226,4.0,11.0,86,0.00,,,0.00,Wunderground v.1.15,2013-04-01 21:04:00,
2013-04-01 17:05:00,74.7,70.2,29.98,WSW,245,6.0,11.0,86,0.00,,,0.00,Wunderground v.1.15,2013-04-01 21:05:00,
2013-04-01 17:07:00,74.6,69.8,29.98,WSW,246,5.0,11.0,85,0.00,,,0.00,Wunderground v.1.15,2013-04-01 21:07:00,
2013-04-01 17:08:00,74.5,69.7,29.98,WSW,257,5.0,11.0,85,0.00,,,0.00,Wunderground v.1.15,2013-04-01 21:08:00,
2013-04-01 17:09:00,74.5,70.0,29.98,SSW,199,4.0,5.0,86,0.00,,,0.00,Wunderground v.1.15,2013-04-01 21:09:00,
2013-04-01 17:10:00,74.6,70.1,29.98,SW,229,4.0,8.0,86,0.00,,,0.00,Wunderground v.1.15,2013-04-01 21:10:00,
2013-04-01 17:12:00,74.8,70.0,29.98,WSW,242,9.0,9.0,85,0.00,,,0.00,Wunderground v.1.15,2013-04-01 21:12:00,
2013-04-01 17:13:00,74.7,69.9,29.98,SW,229,6.0,9.0,85,0.00,,,0.00,Wunderground v.1.15,2013-04-01 21:13:00,
2013-04-01 17:14:00,74.7,69.9,29.98,SW,221,8.0,14.0,85,0.00,,,0.00,Wunderground v.1.15,2013-04-01 21:14:00,
2013-04-01 17:15:00,74.6,69.8,29.98,WSW,249,3.0,14.0,85,0.00,,,0.00,Wunderground v.1.15,2013-04-01 21:15:00,
2013-04-01 17:17:00,74.6,70.1,29.98,SSW,195,5.0,14.0,86,0.00,,,0.00,Wunderground v.1.15,2013-04-01 21:17:00,
2013-04-01 17:18:00,74.8,70.3,29.98,SW,222,4.0,14.0,86,0.00,,,0.00,Wunderground v.1.15,2013-04-01 21:18:00,
2013-04-01 17:20:00,74.9,70.4,29.98,SW,233,3.0,5.0,86,0.00,,,0.00,Wunderground v.1.15,2013-04-01 21:20:00,
2013-04-01 17:23:00,74.8,69.6,29.98,WSW,255,5.0,11.0,84,0.00,,,0.00,Wunderground v.1.15,2013-04-01 21:23:00,
2013-04-01 17:25:00,74.5,69.7,29.98,WSW,248,11.0,11.0,85,0.00,,,0.00,Wunderground v.1.15,2013-04-01 21:25:00,
2013-04-01 17:26:00,74.4,69.6,29.98,WSW,255,8.0,11.0,85,0.00,,,0.00,Wunderground v.1.15,2013-04-01 21:26:00,
2013-04-01 17:28:00,74.2,69.7,29.98,SW,224,7.0,11.0,86,0.00,,,0.00,Wunderground v.1.15,2013-04-01 21:28:00,
2013-04-01 17:30:00,74.1,69.6,29.98,SW,233,4.0,8.0,86,0.00,,,0.00,Wunderground v.1.15,2013-04-01 21:30:00,
2013-04-01 17:31:00,74.1,69.6,29.98,SSW,203,6.0,10.0,86,0.00,,,0.00,Wunderground v.1.15,2013-04-01 21:31:00,
2013-04-01 17:33:00,74.0,69.5,29.98,SW,231,7.0,10.0,86,0.00,,,0.00,Wunderground v.1.15,2013-04-01 21:33:00,
2013-04-01 17:35:00,74.0,69.5,29.98,SSW,208,6.0,10.0,86,0.00,,,0.00,Wunderground v.1.15,2013-04-01 21:35:00,
2013-04-01 17:36:00,73.9,69.4,29.98,WSW,242,4.0,10.0,86,0.00,,,0.00,Wunderground v.1.15,2013-04-01 21:36:00,
2013-04-01 17:38:00,73.9,69.4,29.98,WSW,239,9.0,10.0,86,0.00,,,0.00,Wunderground v.1.15,2013-04-01 21:38:00,
2013-04-01 17:40:00,73.8,69.7,29.98,SW,217,4.0,7.0,87,0.00,,,0.00,Wunderground v.1.15,2013-04-01 21:40:00,
2013-04-01 17:42:00,73.7,69.6,29.98,SSW,205,6.0,7.0,87,0.00,,,0.00,Wunderground v.1.15,2013-04-01 21:42:00,
2013-04-01 17:43:00,73.7,69.2,29.98,SSW,195,6.0,9.0,86,0.00,,,0.00,Wunderground v.1.15,2013-04-01 21:43:00,
2013-04-01 17:44:00,73.7,69.6,29.98,West,266,6.0,9.0,87,0.00,,,0.00,Wunderground v.1.15,2013-04-01 21:44:00,
2013-04-01 17:46:00,73.7,69.6,29.98,WSW,245,5.0,9.0,87,0.00,,,0.00,Wunderground v.1.15,2013-04-01 21:46:00,
2013-04-01 17:47:00,73.6,69.5,29.98,WSW,248,6.0,10.0,87,0.00,,,0.00,Wunderground v.1.15,2013-04-01 21:47:00,
2013-04-01 17:49:00,73.6,69.5,29.98,SW,233,5.0,10.0,87,0.00,,,0.00,Wunderground v.1.15,2013-04-01 21:49:00,
2013-04-01 17:51:00,73.5,69.4,29.98,West,269,4.0,10.0,87,0.00,,,0.00,Wunderground v.1.15,2013-04-01 21:51:00,
2013-04-01 17:52:00,73.6,69.8,29.98,SSW,205,3.0,10.0,88,0.00,,,0.00,Wunderground v.1.15,2013-04-01 21:52:00,
2013-04-01 17:54:00,73.6,69.8,29.98,WSW,254,4.0,10.0,88,0.00,,,0.00,Wunderground v.1.15,2013-04-01 21:54:00,
2013-04-01 17:57:00,73.8,69.7,29.98,SW,226,5.0,10.0,87,0.00,,,0.00,Wunderground v.1.15,2013-04-01 21:57:00,
2013-04-01 17:58:00,73.8,69.7,29.98,South,184,4.0,10.0,87,0.00,,,0.00,Wunderground v.1.15,2013-04-01 21:58:00,
2013-04-01 17:59:00,73.9,69.8,29.98,WSW,242,8.0,10.0,87,0.00,,,0.00,Wunderground v.1.15,2013-04-01 21:59:00,
2013-04-01 18:02:00,73.7,69.6,29.98,WSW,250,7.0,13.0,87,0.00,,,0.00,Wunderground v.1.15,2013-04-01 22:02:00,
2013-04-01 18:03:00,73.6,69.5,29.98,SW,232,8.0,13.0,87,0.00,,,0.00,Wunderground v.1.15,2013-04-01 22:03:00,
2013-04-01 18:04:00,73.6,69.5,29.98,WSW,250,4.0,13.0,87,0.00,,,0.00,Wunderground v.1.15,2013-04-01 22:04:00,
2013-04-01 18:07:00,73.7,69.6,29.98,SW,226,8.0,13.0,87,0.00,,,0.00,Wunderground v.1.15,2013-04-01 22:07:00,
2013-04-01 18:08:00,73.6,69.5,29.98,SW,214,12.0,13.0,87,0.00,,,0.00,Wunderground v.1.15,2013-04-01 22:08:00,
2013-04-01 18:09:00,73.6,69.5,29.98,SW,225,5.0,13.0,87,0.00,,,0.00,Wunderground v.1.15,2013-04-01 22:09:00,
2013-04-01 18:13:00,73.6,69.5,29.98,WSW,240,5.0,11.0,87,0.00,,,0.00,Wunderground v.1.15,2013-04-01 22:13:00,
2013-04-01 18:14:00,73.6,69.5,29.98,WSW,257,7.0,11.0,87,0.00,,,0.00,Wunderground v.1.15,2013-04-01 22:14:00,
2013-04-01 18:18:00,73.6,69.8,29.98,WSW,239,6.0,11.0,88,0.00,,,0.00,Wunderground v.1.15,2013-04-01 22:18:00,
2013-04-01 18:20:00,73.6,69.5,29.98,SW,236,7.0,7.0,87,0.00,,,0.00,Wunderground v.1.15,2013-04-01 22:20:00,
2013-04-01 18:24:00,73.4,69.3,29.98,SW,232,8.0,11.0,87,0.00,,,0.00,Wunderground v.1.15,2013-04-01 22:24:00,
2013-04-01 18:25:00,73.4,69.6,29.98,WSW,239,5.0,11.0,88,0.00,,,0.00,Wunderground v.1.15,2013-04-01 22:25:00,
2013-04-01 18:29:00,73.3,69.5,29.98,SW,228,4.0,11.0,88,0.00,,,0.00,Wunderground v.1.15,2013-04-01 22:29:00,
2013-04-01 18:30:00,73.3,69.5,29.98,WSW,250,8.0,9.0,88,0.00,,,0.00,Wunderground v.1.15,2013-04-01 22:30:00,
2013-04-01 18:34:00,73.3,69.5,29.98,WSW,253,3.0,9.0,88,0.00,,,0.00,Wunderground v.1.15,2013-04-01 22:34:00,
2013-04-01 18:35:00,73.3,69.5,29.98,WSW,246,5.0,9.0,88,0.00,,,0.00,Wunderground v.1.15,2013-04-01 22:35:00,
2013-04-01 18:39:00,73.4,69.6,29.98,SW,226,6.0,12.0,88,0.00,,,0.00,Wunderground v.1.15,2013-04-01 22:39:00,
2013-04-01 18:40:00,73.3,69.5,29.98,SW,236,8.0,9.0,88,0.00,,,0.00,Wunderground v.1.15,2013-04-01 22:40:00,
2013-04-01 18:44:00,73.1,69.3,29.98,WSW,239,6.0,12.0,88,0.00,,,0.00,Wunderground v.1.15,2013-04-01 22:44:00,
2013-04-01 18:46:00,73.1,69.3,29.98,SSW,208,1.0,12.0,88,0.00,,,0.00,Wunderground v.1.15,2013-04-01 22:46:00,
2013-04-01 18:49:00,73.0,69.6,29.98,WSW,239,6.0,12.0,89,0.00,,,0.00,Wunderground v.1.15,2013-04-01 22:49:00,
2013-04-01 18:51:00,73.0,69.6,29.98,SW,217,3.0,6.0,89,0.00,,,0.00,Wunderground v.1.15,2013-04-01 22:51:00,
2013-04-01 18:52:00,73.0,69.6,29.98,WSW,245,5.0,6.0,89,0.00,,,0.00,Wunderground v.1.15,2013-04-01 22:52:00,
2013-04-01 18:54:00,72.9,69.5,29.98,WSW,243,4.0,7.0,89,0.00,,,0.00,Wunderground v.1.15,2013-04-01 22:54:00,
2013-04-01 18:56:00,72.9,69.5,29.98,WSW,257,5.0,7.0,89,0.00,,,0.00,Wunderground v.1.15,2013-04-01 22:56:00,
2013-04-01 18:57:00,72.9,69.5,29.98,SSW,200,4.0,7.0,89,0.00,,,0.00,Wunderground v.1.15,2013-04-01 22:57:00,
2013-04-01 18:59:00,72.9,69.1,29.98,WSW,255,5.0,10.0,88,0.00,,,0.00,Wunderground v.1.15,2013-04-01 22:59:00,
2013-04-01 19:01:00,72.7,68.9,29.98,SW,228,7.0,8.0,88,0.00,,,0.00,Wunderground v.1.15,2013-04-01 23:01:00,
2013-04-01 19:03:00,72.6,69.2,29.98,SW,235,6.0,8.0,89,0.00,,,0.00,Wunderground v.1.15,2013-04-01 23:03:00,
2013-04-01 19:04:00,72.4,69.0,29.98,SW,236,4.0,8.0,89,0.00,,,0.00,Wunderground v.1.15,2013-04-01 23:04:00,
2013-04-01 19:06:00,72.3,68.9,29.98,WSW,239,7.0,8.0,89,0.00,,,0.00,Wunderground v.1.15,2013-04-01 23:06:00,
2013-04-01 19:07:00,72.3,69.2,29.98,SW,229,3.0,8.0,90,0.00,,,0.00,Wunderground v.1.15,2013-04-01 23:07:00,
2013-04-01 19:08:00,72.3,69.2,29.98,SW,231,4.0,8.0,90,0.00,,,0.00,Wunderground v.1.15,2013-04-01 23:08:00,
2013-04-01 19:09:00,72.2,69.1,29.98,SSW,207,3.0,5.0,90,0.00,,,0.00,Wunderground v.1.15,2013-04-01 23:09:00,
2013-04-01 19:11:00,72.2,69.1,29.98,WSW,238,5.0,6.0,90,0.00,,,0.00,Wunderground v.1.15,2013-04-01 23:11:00,
2013-04-01 19:12:00,72.2,69.1,29.98,WSW,249,6.0,7.0,90,0.00,,,0.00,Wunderground v.1.15,2013-04-01 23:12:00,
2013-04-01 19:13:00,72.2,69.1,29.98,SSW,212,4.0,7.0,90,0.00,,,0.00,Wunderground v.1.15,2013-04-01 23:13:00,
2013-04-01 19:14:00,72.1,69.0,29.98,WSW,243,4.0,7.0,90,0.00,,,0.00,Wunderground v.1.15,2013-04-01 23:14:00,
2013-04-01 19:17:00,72.0,68.9,29.98,SSW,203,4.0,7.0,90,0.00,,,0.00,Wunderground v.1.15,2013-04-01 23:17:00,
2013-04-01 19:18:00,72.0,68.9,29.98,WSW,255,4.0,7.0,90,0.00,,,0.00,Wunderground v.1.15,2013-04-01 23:18:00,
2013-04-01 19:20:00,72.0,68.9,29.98,SW,232,4.0,4.0,90,0.00,,,0.00,Wunderground v.1.15,2013-04-01 23:20:00,
2013-04-01 19:22:00,71.8,68.7,29.98,WSW,245,4.0,6.0,90,0.00,,,0.00,Wunderground v.1.15,2013-04-01 23:22:00,
2013-04-01 19:23:00,71.8,68.7,29.98,WSW,245,5.0,6.0,90,0.00,,,0.00,Wunderground v.1.15,2013-04-01 23:23:00,
2013-04-01 19:25:00,71.7,68.6,29.98,West,266,3.0,6.0,90,0.00,,,0.00,Wunderground v.1.15,2013-04-01 23:25:00,
2013-04-01 19:27:00,71.6,68.8,29.98,WSW,238,2.0,7.0,91,0.00,,,0.00,Wunderground v.1.15,2013-04-01 23:27:00,
2013-04-01 19:28:00,71.5,68.7,29.98,West,280,1.0,7.0,91,0.00,,,0.00,Wunderground v.1.15,2013-04-01 23:28:00,
2013-04-01 19:30:00,71.4,68.6,29.98,SW,224,4.0,6.0,91,0.00,,,0.00,Wunderground v.1.15,2013-04-01 23:30:00,
2013-04-01 19:32:00,71.3,68.5,29.98,SW,218,4.0,6.0,91,0.00,,,0.00,Wunderground v.1.15,2013-04-01 23:32:00,
2013-04-01 19:33:00,71.2,68.4,29.98,West,271,4.0,6.0,91,0.00,,,0.00,Wunderground v.1.15,2013-04-01 23:33:00,
2013-04-01 19:35:00,71.1,68.3,29.98,SW,214,3.0,6.0,91,0.00,,,0.00,Wunderground v.1.15,2013-04-01 23:35:00,
2013-04-01 19:38:00,71.0,68.6,29.99,SW,235,3.0,6.0,92,0.00,,,0.00,Wunderground v.1.15,2013-04-01 23:38:00,
2013-04-01 19:39:00,71.0,68.6,29.99,SW,223,3.0,6.0,92,0.00,,,0.00,Wunderground v.1.15,2013-04-01 23:39:00,
2013-04-01 19:40:00,70.9,68.5,29.99,WSW,257,2.0,5.0,92,0.00,,,0.00,Wunderground v.1.15,2013-04-01 23:40:00,
2013-04-01 19:43:00,70.9,68.5,29.99,West,267,2.0,5.0,92,0.00,,,0.00,Wunderground v.1.15,2013-04-01 23:43:00,
2013-04-01 19:44:00,70.8,68.4,29.99,SW,228,4.0,5.0,92,0.00,,,0.00,Wunderground v.1.15,2013-04-01 23:44:00,
2013-04-01 19:45:00,70.8,68.4,29.99,WSW,255,2.0,5.0,92,0.00,,,0.00,Wunderground v.1.15,2013-04-01 23:45:00,
2013-04-01 19:48:00,70.7,68.3,29.99,WSW,248,2.0,5.0,92,0.00,,,0.00,Wunderground v.1.15,2013-04-01 23:48:00,
2013-04-01 19:49:00,70.7,68.3,29.99,SW,226,1.0,5.0,92,0.00,,,0.00,Wunderground v.1.15,2013-04-01 23:49:00,
2013-04-01 19:50:00,70.7,68.3,29.99,SW,229,3.0,3.0,92,0.00,,,0.00,Wunderground v.1.15,2013-04-01 23:50:00,
2013-04-01 19:53:00,70.6,68.2,29.99,WSW,247,2.0,4.0,92,0.00,,,0.00,Wunderground v.1.15,2013-04-01 23:53:00,
2013-04-01 19:54:00,70.5,68.1,29.99,West,259,3.0,4.0,92,0.00,,,0.00,Wunderground v.1.15,2013-04-01 23:54:00,
2013-04-01 19:55:00,70.5,68.1,29.99,WSW,253,3.0,7.0,92,0.00,,,0.00,Wunderground v.1.15,2013-04-01 23:55:00,
2013-04-01 19:58:00,70.4,68.3,29.99,WSW,239,3.0,7.0,93,0.00,,,0.00,Wunderground v.1.15,2013-04-01 23:58:00,
2013-04-01 19:59:00,70.3,68.2,29.99,WSW,252,4.0,7.0,93,0.00,,,0.00,Wunderground v.1.15,2013-04-01 23:59:00,
2013-04-01 20:00:00,70.3,68.2,29.99,SW,229,2.0,3.0,93,0.00,,,0.00,Wunderground v.1.15,2013-04-02 00:00:00,
2013-04-01 20:03:00,70.2,68.1,29.99,SW,214,1.0,4.0,93,0.00,,,0.00,Wunderground v.1.15,2013-04-02 00:03:00,
2013-04-01 20:04:00,70.2,68.1,30.00,SW,221,1.0,4.0,93,0.00,,,0.00,Wunderground v.1.15,2013-04-02 00:04:00,
2013-04-01 20:05:00,70.2,68.1,30.00,WSW,240,2.0,4.0,93,0.00,,,0.00,Wunderground v.1.15,2013-04-02 00:05:00,
2013-04-01 20:08:00,70.1,68.0,30.00,SW,229,2.0,5.0,93,0.00,,,0.00,Wunderground v.1.15,2013-04-02 00:08:00,
2013-04-01 20:09:00,70.1,68.0,30.00,SW,229,1.0,5.0,93,0.00,,,0.00,Wunderground v.1.15,2013-04-02 00:09:00,
2013-04-01 20:10:00,70.1,68.0,30.00,WSW,239,3.0,5.0,93,0.00,,,0.00,Wunderground v.1.15,2013-04-02 00:10:00,
2013-04-01 20:14:00,70.0,67.9,30.00,West,273,4.0,5.0,93,0.00,,,0.00,Wunderground v.1.15,2013-04-02 00:14:00,
2013-04-01 20:15:00,70.0,67.9,30.00,WSW,246,1.0,5.0,93,0.00,,,0.00,Wunderground v.1.15,2013-04-02 00:15:00,
2013-04-01 20:19:00,70.0,68.2,30.00,WSW,250,1.0,5.0,94,0.00,,,0.00,Wunderground v.1.15,2013-04-02 00:19:00,
2013-04-01 20:20:00,69.9,68.1,30.00,WSW,239,3.0,3.0,94,0.00,,,0.00,Wunderground v.1.15,2013-04-02 00:20:00,
2013-04-01 20:24:00,69.9,68.1,30.00,WSW,239,2.0,3.0,94,0.00,,,0.00,Wunderground v.1.15,2013-04-02 00:24:00,
2013-04-01 20:25:00,69.9,68.1,30.00,SW,235,1.0,5.0,94,0.00,,,0.00,Wunderground v.1.15,2013-04-02 00:25:00,
2013-04-01 20:26:00,69.9,68.1,30.00,SW,226,2.0,5.0,94,0.00,,,0.00,Wunderground v.1.15,2013-04-02 00:26:00,
2013-04-01 20:29:00,69.9,68.1,30.00,WSW,239,3.0,5.0,94,0.00,,,0.00,Wunderground v.1.15,2013-04-02 00:29:00,
2013-04-01 20:30:00,69.8,68.0,30.00,WSW,241,1.0,2.0,94,0.00,,,0.00,Wunderground v.1.15,2013-04-02 00:30:00,
2013-04-01 20:31:00,69.8,68.0,30.00,SSW,203,2.0,2.0,94,0.00,,,0.00,Wunderground v.1.15,2013-04-02 00:31:00,
2013-04-01 20:34:00,69.8,68.0,30.00,SW,235,2.0,3.0,94,0.00,,,0.00,Wunderground v.1.15,2013-04-02 00:34:00,
2013-04-01 20:35:00,69.8,68.0,30.00,WSW,239,1.0,4.0,94,0.00,,,0.00,Wunderground v.1.15,2013-04-02 00:35:00,
2013-04-01 20:36:00,69.8,68.0,30.00,SSW,205,0.0,4.0,94,0.00,,,0.00,Wunderground v.1.15,2013-04-02 00:36:00,
2013-04-01 20:37:00,69.8,68.0,30.00,SSW,205,1.0,4.0,94,0.00,,,0.00,Wunderground v.1.15,2013-04-02 00:37:00,
2013-04-01 20:39:00,69.7,67.9,30.00,SW,232,3.0,4.0,94,0.00,,,0.00,Wunderground v.1.15,2013-04-02 00:39:00,
2013-04-01 20:40:00,69.7,67.9,30.01,WSW,239,2.0,4.0,94,0.00,,,0.00,Wunderground v.1.15,2013-04-02 00:40:00,
2013-04-01 20:42:00,69.7,67.9,30.01,WSW,239,0.0,4.0,94,0.00,,,0.00,Wunderground v.1.15,2013-04-02 00:42:00,
2013-04-01 20:44:00,69.7,67.9,30.01,SW,225,3.0,4.0,94,0.00,,,0.00,Wunderground v.1.15,2013-04-02 00:44:00,
2013-04-01 20:45:00,69.7,67.9,30.01,SW,236,2.0,4.0,94,0.00,,,0.00,Wunderground v.1.15,2013-04-02 00:45:00,
2013-04-01 20:47:00,69.6,67.8,30.01,SW,236,2.0,4.0,94,0.00,,,0.00,Wunderground v.1.15,2013-04-02 00:47:00,
2013-04-01 20:49:00,69.6,67.8,30.01,SW,218,0.0,4.0,94,0.00,,,0.00,Wunderground v.1.15,2013-04-02 00:49:00,
2013-04-01 20:51:00,69.6,67.8,30.01,SSW,205,1.0,3.0,94,0.00,,,0.00,Wunderground v.1.15,2013-04-02 00:51:00,
2013-04-01 20:52:00,69.6,67.8,30.01,SW,227,3.0,3.0,94,0.00,,,0.00,Wunderground v.1.15,2013-04-02 00:52:00,
2013-04-01 20:54:00,69.6,67.8,30.01,SW,215,3.0,5.0,94,0.00,,,0.00,Wunderground v.1.15,2013-04-02 00:54:00,
2013-04-01 20:57:00,69.5,67.7,30.01,WSW,243,2.0,5.0,94,0.00,,,0.00,Wunderground v.1.15,2013-04-02 00:57:00,
2013-04-01 20:59:00,69.5,67.7,30.01,WSW,247,1.0,5.0,94,0.00,,,0.00,Wunderground v.1.15,2013-04-02 00:59:00,
2013-04-01 21:02:00,69.4,67.6,30.01,SW,225,3.0,3.0,94,0.00,,,0.00,Wunderground v.1.15,2013-04-02 01:02:00,
2013-04-01 21:03:00,69.4,67.6,30.01,WSW,239,2.0,3.0,94,0.00,,,0.00,Wunderground v.1.15,2013-04-02 01:03:00,
2013-04-01 21:04:00,69.4,67.6,30.01,WSW,249,1.0,3.0,94,0.00,,,0.00,Wunderground v.1.15,2013-04-02 01:04:00,
2013-04-01 21:08:00,69.3,67.5,30.01,West,263,1.0,4.0,94,0.00,,,0.00,Wunderground v.1.15,2013-04-02 01:08:00,
2013-04-01 21:09:00,69.3,67.5,30.01,WSW,255,1.0,4.0,94,0.00,,,0.00,Wunderground v.1.15,2013-04-02 01:09:00,
2013-04-01 21:13:00,69.3,67.8,30.01,WSW,242,2.0,4.0,95,0.00,,,0.00,Wunderground v.1.15,2013-04-02 01:13:00,
2013-04-01 21:14:00,69.3,67.8,30.01,WSW,246,0.0,4.0,95,0.00,,,0.00,Wunderground v.1.15,2013-04-02 01:14:00,
2013-04-01 21:18:00,69.3,67.8,30.01,WSW,257,4.0,5.0,95,0.00,,,0.00,Wunderground v.1.15,2013-04-02 01:18:00,
2013-04-01 21:19:00,69.2,67.7,30.01,SW,227,4.0,5.0,95,0.00,,,0.00,Wunderground v.1.15,2013-04-02 01:19:00,
2013-04-01 21:20:00,69.2,67.7,30.01,SW,235,4.0,5.0,95,0.00,,,0.00,Wunderground v.1.15,2013-04-02 01:20:00,
2013-04-01 21:23:00,69.3,67.8,30.02,SW,228,2.0,5.0,95,0.00,,,0.00,Wunderground v.1.15,2013-04-02 01:23:00,
2013-04-01 21:25:00,69.2,67.7,30.01,West,259,1.0,5.0,95,0.00,,,0.00,Wunderground v.1.15,2013-04-02 01:25:00,
2013-04-01 21:28:00,69.2,67.7,30.02,SW,229,2.0,5.0,95,0.00,,,0.00,Wunderground v.1.15,2013-04-02 01:28:00,
2013-04-01 21:29:00,69.2,67.7,30.02,SW,229,1.0,5.0,95,0.00,,,0.00,Wunderground v.1.15,2013-04-02 01:29:00,
2013-04-01 21:30:00,69.2,67.7,30.01,WSW,247,2.0,2.0,95,0.00,,,0.00,Wunderground v.1.15,2013-04-02 01:30:00,
2013-04-01 21:34:00,69.2,67.7,30.02,SW,236,3.0,4.0,95,0.00,,,0.00,Wunderground v.1.15,2013-04-02 01:34:00,
2013-04-01 21:35:00,69.2,67.7,30.02,WSW,252,2.0,4.0,95,0.00,,,0.00,Wunderground v.1.15,2013-04-02 01:35:00,
2013-04-01 21:39:00,69.2,67.7,30.02,SW,229,1.0,4.0,95,0.00,,,0.00,Wunderground v.1.15,2013-04-02 01:39:00,
2013-04-01 21:40:00,69.2,67.7,30.02,West,259,2.0,2.0,95,0.00,,,0.00,Wunderground v.1.15,2013-04-02 01:40:00,
2013-04-01 21:44:00,69.2,67.7,30.02,West,259,2.0,2.0,95,0.00,,,0.00,Wunderground v.1.15,2013-04-02 01:44:00,
2013-04-01 21:45:00,69.2,67.7,30.02,WSW,248,1.0,2.0,95,0.00,,,0.00,Wunderground v.1.15,2013-04-02 01:45:00,
2013-04-01 21:49:00,69.2,67.7,30.02,West,259,3.0,5.0,95,0.00,,,0.00,Wunderground v.1.15,2013-04-02 01:49:00,
2013-04-01 21:50:00,69.2,67.7,30.02,WSW,255,3.0,3.0,95,0.00,,,0.00,Wunderground v.1.15,2013-04-02 01:50:00,
2013-04-01 21:54:00,69.3,67.8,30.02,West,262,1.0,4.0,95,0.00,,,0.00,Wunderground v.1.15,2013-04-02 01:54:00,
2013-04-01 21:55:00,69.3,67.8,30.02,WSW,252,2.0,4.0,95,0.00,,,0.00,Wunderground v.1.15,2013-04-02 01:55:00,
2013-04-01 21:56:00,69.3,67.8,30.02,West,266,2.0,4.0,95,0.00,,,0.00,Wunderground v.1.15,2013-04-02 01:56:00,
2013-04-01 21:59:00,69.2,67.7,30.02,West,264,1.0,2.0,95,0.00,,,0.00,Wunderground v.1.15,2013-04-02 01:59:00,
2013-04-01 22:00:00,69.2,67.7,30.02,West,264,1.0,2.0,95,0.00,,,0.00,Wunderground v.1.15,2013-04-02 02:00:00,
2013-04-01 22:01:00,69.2,67.7,30.02,WSW,248,2.0,3.0,95,0.00,,,0.00,Wunderground v.1.15,2013-04-02 02:01:00,
2013-04-01 22:05:00,69.2,67.7,30.02,WSW,246,2.0,5.0,95,0.00,,,0.00,Wunderground v.1.15,2013-04-02 02:05:00,
2013-04-01 22:07:00,69.2,67.7,30.02,SW,226,3.0,5.0,95,0.00,,,0.00,Wunderground v.1.15,2013-04-02 02:07:00,
2013-04-01 22:10:00,69.2,67.7,30.03,SW,231,1.0,2.0,95,0.00,,,0.00,Wunderground v.1.15,2013-04-02 02:10:00,
2013-04-01 22:12:00,69.2,67.7,30.03,SW,231,1.0,2.0,95,0.00,,,0.00,Wunderground v.1.15,2013-04-02 02:12:00,
2013-04-01 22:15:00,69.2,67.7,30.03,WSW,255,2.0,3.0,95,0.00,,,0.00,Wunderground v.1.15,2013-04-02 02:15:00,
2013-04-01 22:16:00,69.2,67.7,30.03,WSW,254,1.0,3.0,95,0.00,,,0.00,Wunderground v.1.15,2013-04-02 02:16:00,
2013-04-01 22:17:00,69.2,67.7,30.03,WSW,239,2.0,3.0,95,0.00,,,0.00,Wunderground v.1.15,2013-04-02 02:17:00,
2013-04-01 22:20:00,69.2,67.7,30.03,WSW,239,0.0,1.0,95,0.00,,,0.00,Wunderground v.1.15,2013-04-02 02:20:00,
2013-04-01 22:21:00,69.1,67.6,30.03,WSW,239,1.0,1.0,95,0.00,,,0.00,Wunderground v.1.15,2013-04-02 02:21:00,
2013-04-01 22:22:00,69.1,67.6,30.03,West,259,1.0,3.0,95,0.00,,,0.00,Wunderground v.1.15,2013-04-02 02:22:00,
2013-04-01 22:25:00,69.1,67.6,30.03,WSW,254,0.0,4.0,95,0.00,,,0.00,Wunderground v.1.15,2013-04-02 02:25:00,
2013-04-01 22:26:00,69.1,67.6,30.03,WSW,255,1.0,4.0,95,0.00,,,0.00,Wunderground v.1.15,2013-04-02 02:26:00,
2013-04-01 22:27:00,69.1,67.6,30.03,WSW,255,1.0,4.0,95,0.00,,,0.00,Wunderground v.1.15,2013-04-02 02:27:00,
2013-04-01 22:30:00,69.0,67.5,30.03,WSW,252,0.0,1.0,95,0.00,,,0.00,Wunderground v.1.15,2013-04-02 02:30:00,
2013-04-01 22:31:00,69.0,67.5,30.03,WSW,252,0.0,1.0,95,0.00,,,0.00,Wunderground v.1.15,2013-04-02 02:31:00,
2013-04-01 22:32:00,69.0,67.5,30.03,WSW,252,0.0,1.0,95,0.00,,,0.00,Wunderground v.1.15,2013-04-02 02:32:00,
2013-04-01 22:35:00,69.0,67.5,30.03,WSW,252,1.0,2.0,95,0.00,,,0.00,Wunderground v.1.15,2013-04-02 02:35:00,
2013-04-01 22:36:00,69.0,67.5,30.03,WSW,255,2.0,2.0,95,0.00,,,0.00,Wunderground v.1.15,2013-04-02 02:36:00,
2013-04-01 22:37:00,69.0,67.5,30.03,WSW,255,2.0,2.0,95,0.00,,,0.00,Wunderground v.1.15,2013-04-02 02:37:00,
2013-04-01 22:41:00,68.9,67.4,30.02,West,263,1.0,2.0,95,0.00,,,0.00,Wunderground v.1.15,2013-04-02 02:41:00,
2013-04-01 22:42:00,68.9,67.4,30.03,West,263,1.0,2.0,95,0.00,,,0.00,Wunderground v.1.15,2013-04-02 02:42:00,
2013-04-01 22:47:00,68.9,67.4,30.03,West,265,1.0,3.0,95,0.00,,,0.00,Wunderground v.1.15,2013-04-02 02:47:00,
2013-04-01 22:52:00,68.8,67.3,30.02,West,259,1.0,2.0,95,0.00,,,0.00,Wunderground v.1.15,2013-04-02 02:52:00,
2013-04-01 22:57:00,68.8,67.3,30.02,WSW,245,1.0,2.0,95,0.00,,,0.00,Wunderground v.1.15,2013-04-02 02:57:00,
2013-04-01 23:02:00,68.7,67.2,30.02,West,262,1.0,2.0,95,0.00,,,0.00,Wunderground v.1.15,2013-04-02 03:02:00,
2013-04-01 23:07:00,68.7,67.2,30.03,West,263,1.0,3.0,95,0.00,,,0.00,Wunderground v.1.15,2013-04-02 03:07:00,
2013-04-01 23:08:00,68.7,67.2,30.03,WSW,238,2.0,3.0,95,0.00,,,0.00,Wunderground v.1.15,2013-04-02 03:08:00,
2013-04-01 23:12:00,68.6,67.1,30.03,SW,236,1.0,2.0,95,0.00,,,0.00,Wunderground v.1.15,2013-04-02 03:12:00,
2013-04-01 23:13:00,68.6,67.1,30.03,SW,236,0.0,2.0,95,0.00,,,0.00,Wunderground v.1.15,2013-04-02 03:13:00,
2013-04-01 23:17:00,68.5,67.0,30.03,SW,236,1.0,2.0,95,0.00,,,0.00,Wunderground v.1.15,2013-04-02 03:17:00,
2013-04-01 23:18:00,68.6,67.1,30.03,SW,236,0.0,2.0,95,0.00,,,0.00,Wunderground v.1.15,2013-04-02 03:18:00,
2013-04-01 23:19:00,68.5,67.0,30.03,West,264,1.0,2.0,95,0.00,,,0.00,Wunderground v.1.15,2013-04-02 03:19:00,
2013-04-01 23:23:00,68.5,67.0,30.02,West,264,1.0,2.0,95,0.00,,,0.00,Wunderground v.1.15,2013-04-02 03:23:00,
2013-04-01 23:24:00,68.5,67.0,30.02,West,264,0.0,2.0,95,0.00,,,0.00,Wunderground v.1.15,2013-04-02 03:24:00,
2013-04-01 23:28:00,68.4,66.9,30.02,West,264,0.0,2.0,95,0.00,,,0.00,Wunderground v.1.15,2013-04-02 03:28:00,
2013-04-01 23:29:00,68.4,66.9,30.02,West,264,0.0,2.0,95,0.00,,,0.00,Wunderground v.1.15,2013-04-02 03:29:00,
2013-04-01 23:33:00,68.4,66.9,30.02,West,264,2.0,2.0,95,0.00,,,0.00,Wunderground v.1.15,2013-04-02 03:33:00,
2013-04-01 23:34:00,68.4,66.9,30.02,West,264,1.0,2.0,95,0.00,,,0.00,Wunderground v.1.15,2013-04-02 03:34:00,
2013-04-01 23:38:00,68.4,67.2,30.02,West,264,1.0,2.0,96,0.00,,,0.00,Wunderground v.1.15,2013-04-02 03:38:00,
2013-04-01 23:39:00,68.4,67.2,30.02,West,264,1.0,2.0,96,0.00,,,0.00,Wunderground v.1.15,2013-04-02 03:39:00,
2013-04-01 23:40:00,68.4,66.9,30.02,West,264,1.0,1.0,95,0.00,,,0.00,Wunderground v.1.15,2013-04-02 03:40:00,
2013-04-01 23:43:00,68.4,66.9,30.02,West,265,1.0,3.0,95,0.00,,,0.00,Wunderground v.1.15,2013-04-02 03:43:00,
2013-04-01 23:44:00,68.4,66.9,30.02,West,266,1.0,3.0,95,0.00,,,0.00,Wunderground v.1.15,2013-04-02 03:44:00,
2013-04-01 23:45:00,68.3,66.8,30.02,West,266,0.0,3.0,95,0.00,,,0.00,Wunderground v.1.15,2013-04-02 03:45:00,
2013-04-01 23:48:00,68.3,66.8,30.02,West,266,0.0,3.0,95,0.00,,,0.00,Wunderground v.1.15,2013-04-02 03:48:00,
2013-04-01 23:49:00,68.3,66.8,30.02,West,265,0.0,3.0,95,0.00,,,0.00,Wunderground v.1.15,2013-04-02 03:49:00,
2013-04-01 23:50:00,68.3,66.8,30.02,West,266,1.0,1.0,95,0.00,,,0.00,Wunderground v.1.15,2013-04-02 03:50:00,
2013-04-01 23:54:00,68.3,67.1,30.02,West,259,2.0,3.0,96,0.00,,,0.00,Wunderground v.1.15,2013-04-02 03:54:00,
2013-04-01 23:55:00,68.3,67.1,30.02,West,259,1.0,3.0,96,0.00,,,0.00,Wunderground v.1.15,2013-04-02 03:55:00,
2013-04-01 23:59:00,68.2,67.0,30.02,West,259,2.0,3.0,96,0.00,,,0.00,Wunderground v.1.15,2013-04-02 03:59:00,